[[{"header":{"parameterUnit":"m.s-1","parameterCategory":1,"la1":30.6,"la2":29.2853,"lo1":-89.7004,"lo2":-87.6739,"dy":0.0162,"dx":0.0183,"nx":112,"ny":82,"refTime":"2023-04-22T06:00:00:Z","depth":0,"parameterNumber":2,"parameterNumberName":"U-component_of_WINDS"},"data":[0.0,0.0,0.0,0.0,0.0,0.0,0.0,0.0,0.0,0.0,0.0,0.0,0.0,0.0,0.0,0.0,0.0,0.0,0.0,0.0,0.0,0.0,0.0,0.0,0.0,0.0,0.0,0.0,0.0,0.0,0.0,0.0,0.0,0.0,0.0,0.0,0.0,0.0,0.0,0.0,0.0,0.0,0.0,0.0,0.0,0.0,0.0,0.0,0.0,0.0,0.0,0.0,0.0,0.0,0.0,0.0,0.0,0.0,0.0,0.0,0.0,0.0,0.0,0.0,0.0,0.0,0.0,0.0,0.0,0.0,0.0,0.0,0.0,0.0,0.0,0.0,0.0,0.0,0.0,0.0,0.0,0.0,0.0,0.0,0.0,0.0,0.0,0.0,0.0,0.0,0.0,2.1347,2.2418,2.3101,2.3101,2.3101,2.2381,2.0723,0.0,0.0,0.0,0.0,0.0,0.0,0.0,0.0,0.0,0.0,0.0,0.0,0.0,0.0,0.0,0.0,0.0,0.0,0.0,0.0,0.0,0.0,0.0,0.0,0.0,0.0,0.0,0.0,0.0,0.0,0.0,0.0,0.0,0.0,0.0,0.0,0.0,0.0,0.0,0.0,0.0,0.0,0.0,0.0,0.0,0.0,0.0,0.0,0.0,0.0,0.0,0.0,0.0,0.0,0.0,0.0,0.0,0.0,0.0,0.0,0.0,0.0,0.0,0.0,0.0,0.0,0.0,0.0,0.0,0.0,0.0,0.0,0.0,0.0,0.0,0.0,0.0,0.0,0.0,0.0,0.0,0.0,0.0,0.0,0.0,0.0,0.0,0.0,0.0,0.0,0.0,0.0,0.0,0.0,0.0,0.0,0.0,0.0,0.0,0.0,0.0,0.0,0.0,0.0,2.0605,2.2127,2.2791,2.3101,2.3101,2.3101,2.2381,2.0723,0.0,0.0,0.0,0.0,0.0,0.0,0.0,0.0,0.0,0.0,0.0,0.0,0.0,0.0,0.0,0.0,0.0,0.0,0.0,0.0,0.0,0.0,0.0,0.0,0.0,0.0,0.0,0.0,0.0,0.0,0.0,0.0,0.0,0.0,0.0,0.0,0.0,0.0,0.0,0.0,0.0,0.0,0.0,0.0,0.0,0.0,0.0,0.0,0.0,0.0,0.0,0.0,0.0,0.0,0.0,0.0,0.0,0.0,0.0,0.0,0.0,0.0,0.0,0.0,0.0,0.0,0.0,0.0,0.0,0.0,0.0,0.0,0.0,0.0,0.0,0.0,0.0,0.0,0.0,0.0,0.0,0.0,0.0,0.0,0.0,0.0,0.0,0.0,0.0,0.0,0.0,0.0,0.0,0.0,0.0,0.0,0.0,0.0,0.0,0.0,0.0,0.0,0.0,2.0586,2.1465,2.2693,2.2984,2.3101,2.3101,2.3101,2.2381,2.0723,2.0605,0.0,0.0,0.0,0.0,0.0,0.0,0.0,0.0,0.0,0.0,0.0,0.0,0.0,0.0,0.0,0.0,0.0,0.0,0.0,0.0,0.0,0.0,0.0,0.0,0.0,0.0,0.0,0.0,0.0,0.0,0.0,0.0,0.0,0.0,0.0,0.0,0.0,0.0,0.0,0.0,0.0,0.0,0.0,0.0,0.0,0.0,0.0,0.0,0.0,0.0,0.0,0.0,0.0,0.0,0.0,0.0,0.0,0.0,0.0,0.0,0.0,0.0,0.0,0.0,0.0,0.0,0.0,0.0,0.0,0.0,0.0,0.0,0.0,0.0,0.0,0.0,0.0,0.0,0.0,0.0,0.0,0.0,0.0,0.0,0.0,0.0,0.0,0.0,0.0,0.0,0.0,0.0,0.0,0.0,0.0,0.0,0.0,0.0,0.0,0.0,0.0,0.0,2.1524,2.2422,2.3023,2.3101,2.3101,2.3101,2.3003,2.2323,2.084,2.0547,0.0,0.0,0.0,0.0,0.0,0.0,0.0,0.0,0.0,0.0,0.0,0.0,0.0,0.0,0.0,0.0,0.0,0.0,0.0,0.0,0.0,0.0,0.0,0.0,0.0,0.0,0.0,0.0,0.0,0.0,0.0,0.0,0.0,0.0,0.0,0.0,0.0,0.0,0.0,0.0,0.0,0.0,0.0,0.0,0.0,0.0,0.0,0.0,0.0,0.0,0.0,0.0,0.0,0.0,0.0,0.0,0.0,0.0,0.0,0.0,0.0,0.0,0.0,0.0,0.0,0.0,0.0,0.0,0.0,0.0,0.0,0.0,0.0,0.0,0.0,0.0,0.0,0.0,0.0,0.0,0.0,0.0,0.0,0.0,0.0,0.0,0.0,0.0,0.0,0.0,0.0,0.0,0.0,0.0,0.0,0.0,0.0,0.0,0.0,0.0,0.0,0.0,2.2012,2.3042,2.3081,2.3101,2.3101,2.3101,2.2752,2.2147,2.123,2.0391,0.0,0.0,0.0,0.0,0.0,0.0,0.0,0.0,0.0,0.0,0.0,0.0,0.0,0.0,0.0,0.0,0.0,0.0,0.0,0.0,0.0,0.0,0.0,0.0,0.0,0.0,0.0,0.0,0.0,0.0,0.0,0.0,0.0,0.0,0.0,0.0,0.0,0.0,0.0,0.0,0.0,0.0,0.0,0.0,0.0,0.0,0.0,0.0,0.0,0.0,0.0,0.0,0.0,0.0,0.0,0.0,0.0,0.0,0.0,0.0,0.0,0.0,0.0,0.0,0.0,0.0,0.0,0.0,0.0,0.0,0.0,0.0,0.0,0.0,0.0,0.0,0.0,0.0,0.0,0.0,0.0,0.0,0.0,0.0,0.0,0.0,0.0,0.0,0.0,0.0,0.0,0.0,0.0,0.0,0.0,0.0,0.0,0.0,0.0,0.0,0.0,0.0,2.1836,2.283,0.0,2.3101,2.3101,2.3101,2.2945,2.2401,2.1268,0.0,0.0,0.0,0.0,0.0,0.0,0.0,0.0,0.0,0.0,0.0,0.0,0.0,0.0,0.0,0.0,0.0,0.0,0.0,0.0,0.0,0.0,0.0,0.0,0.0,0.0,0.0,0.0,0.0,0.0,0.0,0.0,0.0,0.0,0.0,0.0,0.0,0.0,0.0,0.0,0.0,0.0,0.0,0.0,0.0,0.0,0.0,0.0,0.0,0.0,0.0,0.0,0.0,0.0,0.0,0.0,0.0,0.0,0.0,0.0,0.0,0.0,0.0,0.0,0.0,0.0,0.0,0.0,0.0,0.0,0.0,0.0,0.0,0.0,0.0,0.0,0.0,0.0,0.0,0.0,0.0,0.0,0.0,0.0,0.0,0.0,0.0,0.0,0.0,0.0,0.0,0.0,0.0,0.0,0.0,0.0,0.0,0.0,0.0,0.0,0.0,0.0,2.0801,2.1914,2.2791,0.0,2.3101,2.3101,2.3101,2.2984,2.2498,2.1484,0.0,0.0,0.0,0.0,0.0,0.0,0.0,0.0,0.0,0.0,0.0,0.0,0.0,0.0,0.0,0.0,0.0,0.0,0.0,0.0,0.0,0.0,0.0,0.0,0.0,0.0,0.0,0.0,0.0,0.0,0.0,0.0,0.0,0.0,0.0,0.0,0.0,0.0,0.0,0.0,0.0,0.0,0.0,0.0,0.0,0.0,0.0,0.0,0.0,0.0,0.0,0.0,0.0,0.0,0.0,0.0,0.0,0.0,0.0,0.0,0.0,0.0,0.0,0.0,0.0,0.0,0.0,0.0,0.0,0.0,0.0,0.0,0.0,0.0,0.0,0.0,0.0,0.0,0.0,0.0,0.0,0.0,0.0,0.0,0.0,0.0,0.0,0.0,0.0,0.0,0.0,0.0,0.0,0.0,0.0,0.0,0.0,0.0,0.0,0.0,0.0,0.0,2.119,2.2301,2.3101,2.3101,2.3101,2.3101,2.3101,2.2732,2.2344,0.0,0.0,0.0,0.0,0.0,0.0,0.0,0.0,0.0,0.0,0.0,0.0,0.0,0.0,0.0,0.0,0.0,0.0,0.0,0.0,0.0,0.0,0.0,0.0,0.0,0.0,0.0,0.0,0.0,0.0,0.0,0.0,0.0,0.0,0.0,0.0,0.0,0.0,0.0,0.0,0.0,0.0,0.0,0.0,0.0,0.0,0.0,0.0,0.0,0.0,0.0,0.0,0.0,0.0,0.0,0.0,0.0,0.0,0.0,0.0,0.0,0.0,0.0,0.0,0.0,0.0,0.0,0.0,0.0,0.0,0.0,0.0,0.0,0.0,0.0,0.0,0.0,0.0,0.0,0.0,0.0,0.0,0.0,0.0,0.0,0.0,0.0,0.0,0.0,0.0,0.0,0.0,0.0,0.0,0.0,0.0,0.0,0.0,0.0,0.0,0.0,0.0,0.0,2.1229,2.2301,2.3101,2.3101,2.3101,2.3101,2.3101,2.2984,2.2635,2.1934,0.0,0.0,0.0,0.0,0.0,0.0,0.0,0.0,0.0,0.0,0.0,0.0,0.0,0.0,0.0,0.0,0.0,0.0,0.0,0.0,0.0,0.0,0.0,0.0,0.0,0.0,0.0,0.0,0.0,0.0,0.0,0.0,0.0,0.0,0.0,0.0,0.0,0.0,0.0,0.0,0.0,0.0,0.0,0.0,0.0,0.0,0.0,0.0,0.0,0.0,0.0,0.0,0.0,0.0,0.0,0.0,0.0,0.0,0.0,0.0,0.0,0.0,0.0,0.0,0.0,0.0,0.0,0.0,0.0,0.0,0.0,0.0,0.0,0.0,0.0,0.0,0.0,0.0,0.0,0.0,0.0,0.0,0.0,0.0,0.0,0.0,0.0,0.0,0.0,0.0,0.0,0.0,0.0,0.0,0.0,0.0,0.0,0.0,0.0,0.0,0.0,0.0,2.1503,2.244,2.3101,2.3101,2.3101,2.3101,2.3101,2.3101,2.283,2.2168,0.0,0.0,0.0,0.0,0.0,0.0,0.0,0.0,0.0,0.0,0.0,0.0,0.0,0.0,0.0,0.0,0.0,0.0,0.0,0.0,0.0,0.0,0.0,0.0,0.0,0.0,0.0,0.0,0.0,0.0,0.0,0.0,0.0,0.0,0.0,0.0,0.0,0.0,0.0,0.0,0.0,0.0,0.0,0.0,0.0,0.0,0.0,0.0,0.0,0.0,0.0,0.0,0.0,0.0,0.0,0.0,0.0,0.0,0.0,0.0,0.0,0.0,0.0,0.0,0.0,0.0,0.0,0.0,0.0,0.0,0.0,0.0,0.0,0.0,0.0,0.0,0.0,0.0,0.0,0.0,0.0,0.0,0.0,0.0,0.0,0.0,0.0,0.0,0.0,0.0,0.0,0.0,0.0,0.0,0.0,0.0,0.0,0.0,0.0,0.0,0.0,0.0,2.1915,2.2596,2.3101,2.3101,2.3101,2.3101,2.3101,2.3101,2.2947,2.2518,0.0,0.0,0.0,0.0,0.0,0.0,0.0,0.0,0.0,0.0,0.0,0.0,0.0,0.0,0.0,0.0,0.0,0.0,0.0,0.0,0.0,0.0,0.0,0.0,0.0,0.0,0.0,0.0,0.0,0.0,0.0,0.0,0.0,0.0,0.0,0.0,0.0,0.0,0.0,0.0,0.0,0.0,0.0,0.0,0.0,0.0,0.0,0.0,0.0,0.0,0.0,0.0,0.0,0.0,0.0,0.0,0.0,0.0,0.0,0.0,2.0866,0.0,0.0,0.0,0.0,0.0,0.0,0.0,0.0,0.0,0.0,0.0,0.0,0.0,0.0,0.0,0.0,0.0,0.0,0.0,0.0,0.0,0.0,0.0,0.0,0.0,0.0,0.0,0.0,0.0,0.0,0.0,0.0,0.0,0.0,0.0,0.0,0.0,0.0,0.0,0.0,0.0,2.1915,2.2596,2.3101,2.3101,2.3101,2.3101,2.3101,2.3101,2.2947,2.2518,0.0,0.0,0.0,0.0,0.0,0.0,0.0,0.0,0.0,0.0,0.0,0.0,0.0,0.0,0.0,0.0,0.0,0.0,0.0,0.0,0.0,0.0,0.0,0.0,0.0,0.0,0.0,0.0,0.0,0.0,0.0,0.0,0.0,0.0,0.0,0.0,0.0,0.0,0.0,0.0,0.0,0.0,0.0,0.0,0.0,0.0,0.0,0.0,0.0,0.0,0.0,0.0,0.0,0.0,0.0,0.0,0.0,0.0,0.0,0.0,0.0,2.0358,0.0,0.0,0.0,0.0,0.0,0.0,0.0,0.0,0.0,0.0,0.0,0.0,0.0,0.0,0.0,0.0,0.0,0.0,0.0,0.0,0.0,0.0,0.0,0.0,0.0,0.0,0.0,0.0,0.0,0.0,0.0,0.0,0.0,0.0,0.0,0.0,0.0,0.0,0.0,0.0,2.2168,2.2732,2.3101,2.3101,2.3101,2.3101,2.3101,2.3101,2.3003,2.281,2.2596,0.0,0.0,0.0,0.0,0.0,0.0,0.0,0.0,0.0,0.0,0.0,0.0,0.0,0.0,0.0,0.0,0.0,0.0,0.0,0.0,0.0,0.0,0.0,0.0,0.0,0.0,0.0,0.0,0.0,0.0,0.0,0.0,0.0,0.0,0.0,0.0,0.0,0.0,0.0,0.0,0.0,0.0,0.0,0.0,0.0,0.0,0.0,0.0,0.0,0.0,0.0,0.0,0.0,0.0,1.9577,1.9903,1.9903,1.9903,1.9872,1.942,1.9431,1.9783,0.0,0.0,0.0,0.0,0.0,0.0,0.0,0.0,0.0,0.0,0.0,0.0,0.0,0.0,0.0,0.0,0.0,0.0,0.0,0.0,0.0,0.0,0.0,0.0,0.0,1.9178,1.927,0.0,0.0,0.0,0.0,0.0,0.0,0.0,0.0,0.0,0.0,0.0,0.0,2.2461,2.2849,2.3101,2.3101,2.3101,2.3101,2.3101,2.3101,2.3101,2.3101,2.2791,2.2596,0.0,0.0,0.0,0.0,0.0,0.0,0.0,0.0,0.0,0.0,0.0,0.0,0.0,0.0,0.0,0.0,0.0,0.0,0.0,0.0,0.0,0.0,0.0,0.0,0.0,0.0,0.0,0.0,0.0,0.0,0.0,0.0,1.4629,1.4946,0.0,0.0,0.0,0.0,0.0,0.0,0.0,0.0,0.0,0.0,0.0,0.0,0.0,0.0,1.909,1.8224,1.8608,2.0178,1.9359,1.9166,1.9495,1.9495,1.9495,1.9468,1.9097,0.0,2.0111,1.9844,0.0,0.0,0.0,0.0,0.0,0.0,0.0,0.0,0.0,0.0,0.0,0.0,0.0,0.0,0.0,0.0,0.0,0.0,0.0,0.0,0.0,0.0,1.7169,1.7103,1.7106,1.7386,0.0,1.9615,2.014,1.9149,0.0,0.0,0.0,0.0,0.0,0.0,0.0,0.0,2.2479,2.2849,2.3101,2.3101,2.3101,2.3101,2.3101,2.3101,2.3101,2.3101,2.3042,2.3023,2.3023,2.2693,0.0,0.0,0.0,0.0,0.0,0.0,0.0,0.0,0.0,0.0,0.0,0.0,0.0,0.0,0.0,0.0,0.0,0.0,0.0,0.0,0.0,0.0,0.0,0.0,0.0,0.0,0.0,0.0,0.0,1.4723,1.5124,1.5418,1.5334,1.5186,0.0,0.0,0.0,0.0,0.0,0.0,0.0,0.0,0.0,1.7515,1.7987,1.8553,1.9221,1.8822,1.9147,2.0252,1.9821,1.9907,2.0334,2.0204,2.0137,2.011,1.9613,1.9622,1.9941,1.9648,1.9385,1.9219,0.0,0.0,0.0,0.0,0.0,1.9543,1.8972,0.0,0.0,0.0,0.0,0.0,0.0,0.0,0.0,0.0,0.0,0.0,0.0,0.0,0.0,1.7268,1.7194,1.7349,1.7874,1.8863,1.9587,0.0,2.0474,2.1228,2.021,0.0,0.0,0.0,0.0,0.0,2.3427,2.3728,2.3747,2.3535,2.3474,2.3376,2.312,2.3101,2.3101,2.3101,2.3101,2.3101,2.3101,2.2947,2.2732,0.0,0.0,0.0,0.0,0.0,0.0,0.0,0.0,0.0,0.0,0.0,0.0,0.0,0.0,0.0,0.0,0.0,0.0,0.0,0.0,0.0,0.0,0.0,0.0,0.0,0.0,0.0,0.0,1.515,1.5671,1.5781,1.5899,1.5896,0.0,0.0,0.0,0.0,0.0,0.0,1.7341,1.7382,1.7903,1.904,1.9052,1.9292,1.9843,1.9923,2.0177,2.0575,2.061,2.0909,2.1323,2.1109,2.1007,2.0913,2.0472,2.016,1.9996,1.947,1.9094,1.8902,1.9532,1.9583,1.9323,1.967,1.9788,1.9654,1.8806,1.8665,1.8824,1.8466,0.0,1.8228,1.8856,0.0,0.0,0.0,0.0,1.7606,1.8021,0.0,1.8153,1.7901,1.7715,1.7635,1.7689,1.8464,1.9155,0.0,2.0149,2.0809,1.9995,0.0,0.0,0.0,0.0,2.1624,2.3187,2.3378,2.3266,2.2966,2.3244,2.3274,2.2812,2.308,2.324,2.3101,2.3101,2.3101,2.3101,2.3101,2.2967,2.2654,0.0,0.0,0.0,0.0,0.0,0.0,0.0,0.0,0.0,0.0,0.0,0.0,0.0,0.0,0.0,0.0,0.0,0.0,0.0,0.0,0.0,0.0,0.0,0.0,0.0,0.0,0.0,0.0,0.0,1.5835,1.6807,0.0,0.0,0.0,0.0,1.7072,1.7354,1.8036,1.9201,1.9267,1.9669,2.0565,2.0592,2.0739,2.1015,2.1341,2.1489,2.1529,2.1796,2.1943,2.1937,2.1924,2.1796,2.1542,2.1502,2.1181,2.0565,1.9403,1.8894,1.8827,1.8306,1.8104,1.809,1.8104,1.8104,1.8144,1.8413,1.8521,1.848,1.813,1.7862,1.7593,1.74,1.7267,0.0,0.0,1.7189,1.7607,1.7634,1.7809,1.809,1.837,1.8036,1.7662,1.7929,1.8816,1.9122,0.0,1.9018,1.9926,1.8321,0.0,2.0188,1.9901,2.0194,2.0489,2.0594,2.0594,2.0594,2.0577,2.1717,2.2306,2.1887,2.3032,2.3574,2.312,2.3101,2.3101,2.3101,2.3101,2.3081,2.3062,2.2693,0.0,0.0,0.0,0.0,0.0,0.0,0.0,0.0,0.0,0.0,0.0,0.0,0.0,0.0,0.0,0.0,0.0,0.0,0.0,0.0,0.0,0.0,0.0,0.0,0.0,0.0,0.0,0.0,1.7488,1.7916,0.0,0.0,1.8076,1.817,1.8277,1.8905,1.972,2.0753,2.0806,2.1208,2.2091,2.2117,2.2171,2.2265,2.2372,2.2532,2.2699,2.2626,2.2659,2.2832,2.2445,2.2205,2.2084,2.1743,2.1462,2.1208,2.0418,1.972,1.9172,1.8758,1.8463,1.833,1.833,1.8423,1.8596,1.8731,1.8771,1.8718,1.8424,1.8263,1.8143,1.8077,1.8036,1.8023,1.7889,1.8009,1.817,1.817,1.825,1.8357,1.8464,1.8358,1.8143,1.8036,1.8482,1.8657,1.7862,1.8756,1.9397,1.8721,1.8271,1.8597,2.0289,2.0002,2.0027,2.1106,2.1238,2.1131,2.081,2.1209,2.1264,2.063,2.102,2.1466,2.1917,2.1212,2.1123,2.1921,2.1943,2.1943,2.1943,2.2555,2.2635,0.0,0.0,0.0,0.0,0.0,0.0,0.0,0.0,0.0,0.0,0.0,0.0,0.0,0.0,0.0,0.0,0.0,0.0,0.0,0.0,0.0,0.0,0.0,0.0,0.0,0.0,1.8103,1.8584,1.9158,1.9479,1.9343,1.9639,1.9813,1.9813,2.0504,2.1309,2.2144,2.2184,2.2492,2.3174,2.3201,2.3201,2.3201,2.3201,2.3308,2.3474,2.3308,2.3308,2.346,2.2953,2.2672,2.2539,2.1984,2.1676,2.1542,2.106,2.0458,1.9803,1.9479,1.9223,1.9078,1.9078,1.9199,1.933,1.933,1.9276,1.9172,1.8878,1.8718,1.8624,1.8517,1.849,1.849,1.849,1.8557,1.8637,1.8637,1.8637,1.8664,1.8799,1.8637,1.8464,1.8343,1.8424,1.8437,1.8209,1.8526,1.8743,1.8551,1.7594,1.7479,1.9288,1.887,1.8758,1.9861,2.0111,2.0044,1.9753,2.0191,2.0282,1.9661,1.9932,2.0339,2.0799,1.9996,1.9861,2.0657,2.0935,2.1103,2.1103,2.2149,2.2578,2.2345,0.0,0.0,0.0,0.0,0.0,0.0,0.0,0.0,0.0,0.0,0.0,0.0,0.0,0.0,0.0,0.0,0.0,0.0,0.0,0.0,0.0,0.0,0.0,1.678,1.8317,1.9348,1.9036,2.0579,2.1301,2.0397,2.1122,2.1662,2.1662,2.2164,2.2718,2.3319,2.3345,2.3514,2.3843,2.3857,2.3857,2.3857,2.3857,2.3857,2.3857,2.3843,2.383,2.383,2.3487,2.3166,2.288,2.2291,2.1877,2.1582,2.1256,2.0962,2.0699,2.033,2.021,2.0197,2.0197,2.021,2.0224,2.0224,2.0024,1.976,1.9508,1.9185,1.885,1.8597,1.8517,1.8517,1.8517,1.8718,1.8916,1.8916,1.8916,1.9011,1.9321,1.896,1.8597,1.8836,1.8704,1.8517,1.8504,1.8249,1.7942,1.7662,1.7408,1.7139,1.6794,1.6754,0.0,1.674,1.702,1.7219,1.7206,1.86,1.9364,1.8962,1.9896,2.0318,1.987,1.9573,1.9422,1.9445,2.0191,2.0634,2.0656,2.1438,2.2219,2.3098,0.0,0.0,0.0,0.0,0.0,0.0,0.0,0.0,0.0,0.0,0.0,0.0,0.0,0.0,0.0,0.0,0.0,0.0,0.0,0.0,0.0,0.0,1.8317,1.8317,1.9466,2.0632,2.1331,2.2071,2.2612,2.2779,2.3054,2.3281,2.346,2.3821,2.4159,2.4569,2.4596,2.473,2.5024,2.5037,2.5037,2.5037,2.5037,2.5037,2.5024,2.4596,2.4396,2.4346,2.3875,2.3487,2.318,2.2827,2.2492,2.2164,2.1871,2.1577,2.1288,2.0779,2.0414,2.0197,2.0197,2.0344,2.0548,2.0548,2.0361,2.0037,1.9773,1.9508,1.9254,1.9174,1.916,1.916,1.916,1.9214,1.9267,1.9267,1.9267,1.9294,1.9374,1.9267,1.912,1.8958,1.9025,1.9093,1.8851,1.8716,1.8556,1.829,1.8197,1.8023,1.7689,0.0,0.0,1.7395,1.7609,1.7635,1.7246,1.7759,1.7939,1.739,1.7837,1.8342,0.0,1.7799,1.7552,1.8454,1.8715,1.9235,2.0096,2.0058,2.013,0.0,0.0,0.0,0.0,0.0,0.0,0.0,0.0,0.0,0.0,0.0,0.0,0.0,0.0,0.0,0.0,0.0,0.0,0.0,0.0,0.0,0.0,1.8891,1.996,2.0828,2.143,2.2124,2.306,2.3541,2.3888,2.4115,2.4499,2.4686,2.4569,2.4957,2.5211,2.5264,2.5264,2.5344,2.5504,2.5518,2.5518,2.5518,2.5518,2.5518,2.5504,2.5133,2.4906,2.481,2.4342,2.3968,0.0,2.3134,2.28,2.2565,2.2151,2.1917,0.0,0.0,0.0,0.0,0.0,2.0708,2.0855,2.0855,2.0748,2.0517,2.0267,1.9973,1.9706,1.9615,1.9575,1.9548,1.9428,1.9481,1.9548,1.9428,1.9401,1.9401,1.9401,1.9401,1.9348,1.9145,1.9267,1.9348,1.9145,0.0,0.0,1.8891,1.8557,1.8196,1.7876,1.7996,1.801,0.0,1.7742,1.7716,1.7394,1.7501,1.7474,1.7101,1.714,0.0,0.0,0.0,1.6932,1.7962,1.8034,0.0,0.0,0.0,1.9668,0.0,0.0,0.0,0.0,2.2482,2.2446,0.0,0.0,0.0,0.0,0.0,0.0,0.0,0.0,0.0,0.0,0.0,0.0,0.0,0.0,0.0,0.0,2.0214,2.1743,2.3723,2.3821,2.3852,2.4342,2.489,2.513,2.4866,2.5558,2.585,2.5396,2.5824,2.5984,2.5678,0.0,0.0,0.0,0.0,2.5611,2.5611,2.5611,2.5611,2.5611,2.5585,2.5411,2.5117,2.4823,2.4479,2.4155,2.3388,2.3014,2.2907,2.2352,2.2071,2.1951,2.1703,2.1422,2.1149,2.1122,2.1109,0.0,0.0,0.0,0.0,2.0793,2.0481,2.0157,1.992,1.9826,1.976,1.9562,1.9626,1.9746,1.9548,1.9495,1.9495,1.9495,1.9495,1.9495,1.9495,1.9468,1.9441,1.9441,1.9415,1.9401,1.9401,1.8718,1.8063,1.7782,1.7782,0.0,1.7715,1.7742,1.7715,1.7622,0.0,0.0,1.7568,1.7354,1.7246,1.7246,1.6939,1.7081,1.779,1.777,1.8127,1.8885,1.8908,1.9868,2.1804,2.0236,2.0767,2.3199,2.1748,2.2075,0.0,0.0,0.0,0.0,0.0,0.0,0.0,0.0,0.0,0.0,0.0,0.0,0.0,0.0,0.0,2.0521,2.2084,2.3683,2.4983,2.5732,2.6012,2.5703,2.5957,2.6213,2.6347,2.6346,2.6493,2.6854,2.672,2.6627,2.6533,2.6573,0.0,2.6226,2.6226,2.6226,2.6226,2.6226,2.6226,2.6213,0.0,0.0,2.5424,2.513,2.4703,2.4195,2.4022,2.3674,2.322,2.3113,2.2645,2.1951,2.1703,2.1542,2.1475,2.1203,2.1109,2.1109,2.1109,2.0962,2.0779,2.0726,2.0481,2.0197,2.0144,1.9987,0.0,1.9983,1.9933,1.984,1.9983,2.0037,2.0037,2.0037,2.0037,2.0037,2.0037,1.988,1.972,1.972,1.9562,1.9401,1.9401,1.9254,1.9011,1.8704,1.8865,1.8879,1.8398,1.8517,1.8384,1.7689,1.7782,1.7756,1.7301,1.7421,1.7528,1.7528,1.7247,1.7162,1.7336,1.7066,1.7125,1.7555,1.7555,1.7787,1.8203,1.807,1.8832,2.0395,2.0818,2.2,0.0,0.0,0.0,0.0,0.0,0.0,0.0,0.0,0.0,0.0,0.0,1.8704,0.0,0.0,2.1229,2.2271,2.3589,2.4927,2.6199,2.6774,2.6934,2.6693,2.6787,2.6881,2.7028,2.7041,2.7108,2.7296,2.7268,2.7134,2.6841,2.6787,2.6694,2.64,2.6386,2.6386,2.6386,2.6386,2.6386,2.6386,2.6239,2.5945,2.5504,2.5358,2.497,2.4409,2.4115,2.3821,2.3527,2.322,2.2832,2.2425,2.2131,2.171,2.1341,2.1162,2.1109,2.1109,2.1109,2.1015,2.0895,2.0895,2.0695,2.0454,2.0454,2.0347,2.0241,2.0197,2.0241,2.0241,2.0197,2.0197,2.0197,2.0197,2.0197,2.0157,2.0024,1.9983,1.9973,1.9826,1.9679,1.9615,1.9615,1.9495,1.9348,1.9172,1.9294,1.9294,1.9,1.8931,1.873,1.8303,1.8263,1.8063,1.7635,1.7582,1.7608,1.7608,1.7474,1.7394,1.7394,1.7247,1.7234,1.7394,1.7394,1.7718,1.8402,1.7868,1.8304,1.9602,1.9397,2.0518,0.0,0.0,0.0,0.0,0.0,0.0,0.0,0.0,1.8263,1.8878,1.9589,2.0204,2.0557,2.171,2.296,2.3941,2.4927,2.5971,2.7215,2.7443,2.7483,2.7483,2.7483,2.7483,2.7483,2.7589,2.7629,2.7496,2.759,2.7402,2.6934,2.6854,2.6694,2.64,2.6386,2.6386,2.6386,2.6386,2.636,2.6306,2.6306,2.5999,2.5424,2.5424,2.5104,2.4479,2.3941,2.3688,2.3683,2.3121,2.2867,2.2786,2.2445,2.1871,2.1189,2.1189,2.1162,2.1109,2.1109,2.1109,2.1109,2.1109,2.0949,2.0793,2.0793,2.0753,2.0641,2.0454,2.0535,2.0641,2.0424,2.037,2.037,2.037,2.037,2.0304,2.0107,2.0201,2.0224,2.0013,1.992,1.988,1.988,1.9639,1.9468,1.9401,1.9401,1.9401,1.9401,1.9158,1.8956,1.8903,1.8718,1.8424,1.8022,1.7796,1.7649,1.7608,1.7608,1.7608,1.7608,1.7608,1.7608,1.7608,1.7608,1.812,1.9228,1.8175,1.8215,1.9202,1.8438,1.9246,1.6834,1.6513,1.6511,1.7032,1.7314,1.7836,0.0,0.0,2.0077,2.0695,2.1729,2.2439,2.2218,2.3581,2.4863,2.5251,2.6279,2.7215,2.7589,2.7924,2.8085,2.8085,2.8085,2.8085,2.8085,2.7884,2.7789,2.8072,2.763,2.7322,2.7269,2.6961,2.6694,2.64,2.6386,2.6386,2.6386,2.6386,2.6305,2.6038,2.6038,2.573,2.513,2.513,2.481,2.4222,2.3599,2.338,2.3319,2.3041,2.2712,2.2432,2.2151,2.185,2.1542,2.1542,2.1368,2.1109,2.1109,2.1109,2.1109,2.1109,2.1082,2.1069,2.1069,2.0882,2.0753,2.0949,2.0842,2.0753,2.0949,2.1015,2.1015,2.1015,2.1015,2.1002,2.0975,2.0788,2.0646,2.0619,2.0361,2.0157,2.0157,1.9947,1.9666,1.9441,1.9401,1.9401,1.9401,1.9361,1.9212,1.893,1.8863,1.8623,1.8035,1.7955,1.7849,1.7622,1.7608,1.7608,1.7608,1.7608,1.7608,1.7608,1.7608,1.7661,1.7819,1.7916,1.7903,1.7845,1.9204,1.9833,1.7569,1.7355,1.7475,0.0,1.8784,1.9466,2.0775,2.1296,2.1724,2.2498,2.3313,2.3968,2.4182,2.5104,2.5999,0.0,2.7094,2.7615,2.7965,2.7951,2.7804,2.7415,2.7375,2.7617,2.8138,2.7911,2.7749,2.7924,2.7697,2.7375,2.7028,2.7054,2.6867,2.64,2.6547,2.656,2.6386,2.6386,2.6279,2.5998,2.5998,2.569,2.5115,2.5115,2.47,2.3941,2.3688,2.338,2.3046,2.2947,2.2827,2.2659,2.2572,2.2345,2.1991,2.1515,2.1216,2.1109,2.1109,2.1109,2.1109,2.1109,2.1109,2.1109,2.1109,2.1029,2.0949,2.1082,2.1029,2.0962,2.1082,2.1109,2.1109,2.1109,2.1109,2.1069,2.0895,2.0895,2.0882,2.0739,2.0575,2.0494,2.0494,2.0241,1.996,1.9666,1.9508,1.9401,1.9401,1.9401,1.9348,1.9227,1.9025,1.8796,1.8543,1.8195,1.7969,1.7836,1.7689,1.7608,1.7608,1.7608,1.7608,1.7608,1.7608,1.7608,1.7608,1.7716,1.7716,1.7608,1.8337,1.8587,1.7929,1.8063,0.0,1.9508,2.0414,2.1317,2.2365,2.2886,2.338,2.4245,2.4703,2.5157,2.5665,2.6239,2.6814,2.7242,2.7617,2.7911,2.8045,2.7696,2.7268,2.676,2.6493,2.6653,2.7496,2.7495,2.7495,2.7575,2.7495,2.7308,2.6961,2.6987,2.6907,2.652,2.664,2.66,2.6386,2.6386,2.6199,2.5877,2.5877,2.5569,2.4957,2.4877,2.4486,2.3803,2.3803,2.3455,2.2907,2.2987,2.2974,2.288,2.2719,2.2485,2.2205,2.1403,2.1162,2.1216,2.1136,2.1109,2.1109,2.1109,2.1109,2.1109,2.1109,2.1109,2.1109,2.1109,2.1109,2.1109,2.1109,2.1109,2.1109,2.1109,2.1109,2.1056,2.0842,2.0962,2.1042,2.0842,2.0802,2.0802,2.0802,2.0548,2.0281,2.008,1.972,1.9481,1.9401,1.9401,1.9401,1.9401,1.9172,1.9011,1.8903,1.8436,1.8103,1.7995,1.7756,1.7608,1.7608,1.7608,1.7608,1.7608,1.7608,1.7608,1.7608,1.7662,1.7662,1.7608,1.7675,1.7662,1.7541,1.8237,1.9143,2.0378,2.1951,2.3359,2.3995,2.4583,2.5208,2.581,2.5944,2.6051,2.6306,2.6881,2.7282,2.7309,2.7791,2.8072,2.7749,2.7215,2.6734,2.644,2.5651,2.5409,0.0,2.652,2.6974,2.7296,2.7014,2.6961,2.7282,2.672,2.6533,2.676,2.6547,2.64,2.6386,2.6386,2.6092,2.5531,2.5531,2.5211,2.4599,2.4356,2.4062,2.3803,2.3803,2.3455,2.292,2.3193,2.314,2.284,2.2265,2.2004,2.1924,2.1323,2.1328,2.1529,2.1203,2.1109,2.1109,2.1109,2.1109,2.1109,2.1109,2.1109,2.1109,2.1109,2.1109,2.1109,2.1109,2.1109,2.1109,2.1109,2.1109,2.1109,2.1096,2.1096,2.1109,2.1096,2.1096,2.1096,2.1096,2.0855,2.0686,2.0686,2.016,1.9679,1.9428,1.9401,1.9401,1.9401,1.9388,1.9239,1.8916,1.8651,1.8357,1.8009,1.7756,1.7608,1.7608,1.7608,1.7608,1.7608,1.7608,1.7608,1.7608,1.7862,1.7849,1.7622,1.7862,1.7849,1.8748,1.903,1.9453,2.2313,2.3754,2.4359,2.381,2.3842,2.3964,2.3964,2.347,2.354,2.4935,2.4213,2.3549,2.4028,2.3575,2.3223,2.3376,2.4382,2.4686,2.3605,2.4598,0.0,0.0,0.0,0.0,2.6653,2.6587,2.6573,2.672,2.668,2.664,2.6533,2.6627,2.6587,2.6386,2.6386,2.6199,2.5837,2.5411,2.5024,2.4586,2.4342,2.4048,2.379,2.3567,2.3247,2.2907,2.3014,2.2987,2.2853,2.2432,2.2271,2.2205,2.1649,2.1502,2.1542,2.1216,2.1109,2.1109,2.1109,2.1109,2.1109,2.1109,2.1109,2.1109,2.1109,2.1109,2.1109,2.1109,2.1109,2.1109,2.1109,2.1109,2.1109,2.1109,2.1109,2.1109,2.1109,2.1109,2.1109,2.1109,2.1029,2.0895,2.0739,2.0174,1.9693,1.9428,1.9401,1.9401,1.9401,1.9401,1.9361,1.9225,1.8945,1.8651,1.8357,1.8036,1.7796,1.7622,1.7608,1.7608,1.7608,1.7608,1.7608,1.7608,1.7689,1.7689,1.7608,1.7689,1.7689,1.796,1.8423,1.8938,2.1659,2.2961,2.3385,2.265,2.243,2.2293,2.195,2.124,2.1019,2.219,2.1257,2.0477,2.1072,2.0535,2.0205,2.068,2.162,2.1943,2.1094,2.2105,2.2172,0.0,0.0,0.0,2.3967,2.4729,2.4857,2.4246,2.5761,2.6254,2.5444,2.6214,2.6573,2.6386,2.6386,2.6225,2.5837,2.5342,2.4877,2.4439,2.4289,2.3981,2.3607,2.3527,2.3247,2.2907,2.2979,2.3,2.2867,2.2539,2.2352,2.2205,2.1756,2.1515,2.1395,2.1176,2.1109,2.1109,2.1109,2.1109,2.1109,2.1109,2.1109,2.1109,2.1109,2.1109,2.1109,2.1109,2.1109,2.1109,2.1109,2.1109,2.1109,2.1109,2.1109,2.1109,2.1109,2.1109,2.1109,2.1109,2.1109,2.1015,2.0753,2.0267,1.9853,1.9589,1.9468,1.9401,1.9401,1.9401,1.9401,1.9401,1.9092,1.8798,1.8504,1.8183,1.7876,1.7622,1.7608,1.7608,1.7608,1.7608,1.7608,1.7608,1.7608,1.7608,1.7608,1.7608,1.7608,1.5462,1.6644,1.771,1.8828,1.994,2.077,2.0642,2.0527,2.028,1.9934,1.9255,1.8647,0.0,0.0,1.8139,1.8481,1.8607,1.8899,1.9512,1.9106,1.8809,0.0,0.0,0.0,0.0,0.0,0.0,1.9324,0.0,2.1997,2.0354,2.3965,2.5246,2.3464,2.5152,2.607,2.607,2.607,2.5766,2.516,2.4921,2.4486,2.3905,2.3892,2.3575,2.3025,2.3311,2.3183,2.2783,2.2937,2.2953,2.2832,2.2323,2.2011,2.1832,2.1475,2.112,2.0837,2.0837,2.0964,2.1109,2.1109,2.1109,2.1109,2.1109,2.1109,2.1109,2.1109,2.1109,2.1109,2.1109,2.1109,2.1109,2.1109,2.1109,2.1109,2.1109,2.1109,2.1109,2.1109,2.1109,2.1109,2.1109,2.1109,2.1015,2.0766,2.0428,2.0104,1.984,1.9575,1.9401,1.9401,1.9401,1.9401,1.9401,1.9105,1.8783,1.8504,1.8196,1.7889,1.7622,1.7608,1.7608,1.7608,1.7608,1.7608,1.7608,1.7608,1.7608,1.7608,1.7608,1.7608,1.6919,1.7266,1.7405,1.9749,2.0557,2.0387,1.8729,1.7972,1.7427,1.6796,1.5551,1.4971,0.0,0.0,0.0,1.5115,1.4711,0.0,1.5471,1.6793,0.0,1.7037,0.0,1.8492,1.6436,1.6377,0.0,0.0,1.8144,2.0108,2.0008,2.099,2.1354,2.0841,2.1313,2.1563,2.1563,2.1563,2.1282,2.0801,2.0736,2.0402,1.9782,1.9606,1.9365,1.9115,1.8959,1.9621,2.0721,1.9319,2.04,2.258,1.9449,1.9039,2.0019,1.8329,1.7587,1.738,1.738,1.8999,2.1109,2.1109,2.1109,2.1109,2.1109,2.1109,2.1109,2.1109,2.1109,2.1109,2.1109,2.1109,2.1109,2.1109,2.1109,2.1109,2.1109,2.1109,2.1109,2.1109,2.1109,2.1109,2.1109,2.1109,2.1082,2.1002,2.053,2.0104,1.984,1.9575,1.9401,1.9401,1.9401,1.9401,1.9401,1.9321,1.9067,1.8517,1.8424,1.8143,1.7635,1.7608,1.7608,1.7608,1.7608,1.7608,1.7608,1.7608,1.7608,1.7608,1.7608,1.7608,1.565,1.5925,1.5905,1.7553,1.7889,1.7494,1.595,1.5256,1.4594,1.3592,1.2627,1.2185,1.2904,1.2215,0.0,0.0,0.0,0.0,1.3349,1.4614,1.5334,0.0,1.6253,0.0,1.4827,1.4738,1.4345,0.0,1.6214,1.7707,1.7089,1.8851,1.9461,1.8476,1.938,1.9907,1.9907,1.9846,1.9623,1.92,1.9138,1.8772,1.8114,1.7956,1.7769,1.7465,0.0,1.7809,1.8718,1.7634,1.8438,2.0178,1.7871,1.752,1.8134,1.7005,1.6359,1.6017,1.6085,1.7282,1.8832,1.8832,1.8832,1.8832,1.8832,1.8832,1.8832,1.8832,1.8832,1.8832,1.8832,1.8832,1.8832,1.8832,1.9387,1.9973,1.9973,2.0557,2.1109,2.1109,2.1109,2.1109,2.1109,2.1109,2.1109,2.1109,2.0584,2.0144,1.9983,1.9626,1.9401,1.9401,1.9401,1.9401,1.9401,1.9401,1.9201,1.8718,1.8557,1.8277,1.7809,1.7649,1.7608,1.7608,1.7608,1.7608,1.7608,1.7608,1.7608,1.7608,1.7608,1.7608,1.3492,1.3892,1.4136,1.4265,1.4156,1.3858,1.3316,1.282,1.2138,1.0941,1.0487,1.0168,0.9693,0.9697,1.0008,1.0671,0.0,1.1619,1.2632,1.2935,1.322,1.3734,1.3707,1.3682,1.3619,1.3553,1.3471,1.3437,1.5052,1.5266,1.3473,1.6983,1.8159,1.6237,1.8037,1.9055,1.9055,1.8922,1.8668,1.8377,1.8232,1.7796,1.7138,1.7138,1.687,1.6449,0.0,0.0,1.6791,1.6545,1.6756,1.7142,1.666,1.6391,1.6284,1.6161,1.5774,1.5283,1.5399,1.5336,1.5297,1.5751,1.5913,1.5913,1.5913,1.5913,1.5913,1.5913,1.5913,1.5913,1.5913,1.5913,1.5913,1.5913,1.7044,1.8148,1.8148,1.9355,2.043,2.043,2.043,2.0494,2.0716,2.0748,2.0811,2.1077,2.061,2.025,2.021,1.9733,1.9401,1.9401,1.9401,1.9401,1.9401,1.9401,1.9267,1.8916,1.8691,1.8397,1.8009,1.7782,1.7648,1.7608,1.7608,1.7608,1.7608,1.7608,1.7608,1.7608,1.7608,1.7608,1.3858,1.4122,1.4265,1.4292,1.4,1.358,1.3146,1.2227,0.0,0.0,0.9954,0.9458,0.9585,0.9697,1.0109,1.1118,1.1525,1.2081,1.3139,1.3308,1.3451,0.0,0.0,0.0,0.0,0.0,0.0,0.0,0.0,0.0,1.3403,1.4135,1.4341,1.3969,1.4341,1.4548,1.4548,1.4378,1.4257,1.4062,1.3892,1.356,1.3126,1.3126,1.2912,1.2574,0.0,0.0,1.4787,1.321,1.4405,1.6896,1.3773,1.3484,1.4586,1.3077,1.2302,1.2035,1.203,1.1846,1.2091,1.4972,1.5913,1.5913,1.5913,1.5913,1.5913,1.5913,1.5913,1.5913,1.5913,1.5913,1.5913,1.5913,1.614,1.6334,1.6334,1.6592,1.6786,1.6786,1.6786,1.7269,1.8704,1.896,1.9451,2.0887,2.0815,2.0508,2.0237,1.9733,1.9401,1.9401,1.9401,1.9401,1.9401,1.9401,1.9267,1.8916,1.885,1.8583,1.8009,1.7969,1.7822,1.7608,1.7608,1.7608,1.7608,1.7608,1.7608,1.7608,1.7608,1.7608,1.3973,1.4183,1.4278,1.4204,1.3783,1.3193,1.2433,0.0,0.0,0.9982,0.9485,0.9226,0.9376,0.9557,0.0,1.069,1.109,1.1671,1.2684,1.3024,0.0,1.3747,0.0,0.0,0.0,0.0,0.0,0.0,0.0,0.0,1.3417,1.3403,1.3403,1.3403,1.3403,1.3403,1.3403,1.3214,1.3071,1.2996,1.2725,1.242,1.2098,1.2098,1.1934,1.1584,1.1584,0.0,1.2888,1.1972,1.2646,1.4129,1.2287,1.2094,1.2732,1.1908,1.134,1.1063,1.1172,1.0968,1.0982,1.2643,1.3193,1.3193,1.3193,1.3193,1.3193,1.3193,1.3193,1.3193,1.3193,1.3193,1.3193,1.3193,1.3905,1.4819,1.5686,1.5913,1.5913,1.5913,1.5913,1.6172,1.7012,1.7141,1.7441,1.8276,1.878,1.9043,1.8875,1.9174,1.9401,1.9401,1.9401,1.9401,1.9401,1.9401,1.9334,1.9158,1.9011,1.8703,1.8263,1.8103,1.7876,1.7622,1.7608,1.7608,1.7608,1.7608,1.7608,1.7608,1.7608,1.7608,1.3994,1.4183,1.4265,1.4109,1.3573,1.282,1.1843,1.1043,0.0,0.9376,0.9158,0.9152,0.922,0.9403,0.968,0.0,1.0575,1.1097,1.206,1.2622,1.3085,0.0,1.3761,0.0,0.0,0.0,0.0,0.0,0.0,0.0,1.3471,1.3417,1.3403,1.3403,1.3403,1.3383,1.3349,1.3132,1.2982,1.2948,1.2603,1.2318,1.2098,1.2064,1.187,1.1584,1.1584,0.0,0.0,1.1584,1.1584,1.1584,1.1584,1.1545,1.1457,1.1572,1.134,1.1022,1.1172,1.0989,1.0732,1.0698,1.0684,1.0684,1.0684,1.0684,1.0684,1.0684,1.0684,1.0684,1.0684,1.0684,1.0684,1.0684,1.1762,1.3128,1.4493,1.4786,1.4786,1.4786,1.4786,1.4907,1.5265,1.5329,1.5459,1.5848,1.6667,1.7227,1.7171,1.7992,1.8543,1.8416,1.9007,1.9401,1.9401,1.9401,1.9401,1.9401,1.9145,1.8865,1.8504,1.8236,1.7942,1.7622,1.7608,1.7608,1.7608,1.7608,1.7608,1.7608,1.7608,1.7608,1.3994,1.4183,1.4265,1.4109,1.3417,1.253,1.1796,0.0,0.99,0.9315,0.9049,0.9014,0.9342,0.9294,0.9464,1.0193,1.0317,1.0697,1.1692,1.2257,1.2766,1.337,0.0,0.0,0.0,0.0,0.0,0.0,0.0,0.0,0.0,1.3478,1.3403,1.3403,1.3403,1.3336,1.3234,1.3077,1.2888,1.2706,1.2447,1.2223,1.2091,1.1918,1.1732,1.1584,0.0,0.0,0.0,1.1584,1.1584,1.1584,1.1584,1.1577,1.1563,1.1613,1.1504,1.1335,1.124,1.1056,1.0874,1.0732,1.0684,1.0684,1.0684,1.0684,1.0684,1.0684,1.0684,1.0684,1.0684,1.0684,1.0684,1.0684,1.0817,1.0982,1.1141,1.1174,1.1174,1.1174,1.1174,1.1663,1.3259,1.3554,1.4068,1.5654,1.598,1.5975,1.5706,1.5772,1.568,1.5267,1.7747,1.9401,1.9401,1.9401,1.9401,1.9401,1.9374,1.9107,1.8517,1.8464,1.8183,1.7622,1.7608,1.7608,1.7608,1.7608,1.7608,1.7608,1.7608,1.7608,1.3403,1.3905,1.4217,1.3885,1.3193,1.2314,1.1394,0.0,0.971,0.9144,0.8953,0.8946,0.9061,0.9062,0.915,0.9567,0.9709,1.0073,1.0995,1.147,1.2091,1.3024,0.0,0.0,0.0,0.0,0.0,0.0,0.0,0.0,0.0,1.3485,1.3356,1.3268,1.3261,1.3234,1.3091,1.2895,1.2793,1.2686,1.2433,1.2247,1.2091,1.1904,1.1719,1.1584,0.0,0.0,0.0,1.1584,1.1584,1.1584,1.1584,1.1584,1.1584,1.1584,1.1525,1.1369,1.1247,1.107,1.0887,1.0738,1.0684,1.0684,1.0684,1.0684,1.0684,1.0684,1.0684,1.0684,1.0684,1.0684,1.0684,1.0684,1.0684,1.0684,1.0684,1.0684,1.0684,1.0684,1.0684,1.0916,1.163,1.1729,1.196,1.2676,1.3516,1.4056,1.3952,1.468,1.5111,1.4831,1.6777,1.805,1.7964,1.8852,1.9401,1.9401,1.9401,1.9134,1.8517,1.849,1.8237,1.7622,1.7608,1.7608,1.7608,1.7608,1.7608,1.7608,1.7608,1.7608,1.28,1.3492,1.396,1.3641,1.2963,1.2121,0.0,0.0,0.9575,0.9021,0.8912,0.8912,0.8912,0.8912,0.8946,0.9104,0.9281,0.9652,1.0419,1.0853,1.145,0.0,0.0,0.0,0.0,0.0,0.0,0.0,0.0,0.0,0.0,1.3417,1.3281,1.3214,1.3173,1.3077,1.2895,1.2786,1.2665,1.2618,1.2366,1.2207,1.2091,1.1857,1.1678,1.1584,0.0,0.0,0.0,1.1584,1.1584,1.1584,1.1584,1.1584,1.1584,1.1584,1.1525,1.1369,1.1247,1.107,1.0887,1.0738,1.0684,1.0684,1.0684,1.0684,1.0684,1.0684,1.0684,1.0684,1.0684,1.0684,1.0684,1.0684,1.0684,1.0684,1.0684,1.0684,1.0684,1.0684,1.0684,1.0684,1.0684,1.0684,1.0684,1.0684,1.1566,1.2264,1.2264,1.3108,1.3672,1.3536,1.4931,1.6183,1.6938,1.804,1.8881,1.9372,1.9401,1.9134,1.8517,1.849,1.8237,1.7622,1.7608,1.7608,1.7608,1.7608,1.7608,1.7608,1.7608,1.7608,1.2305,1.2949,1.341,1.3403,1.2771,1.1907,1.1083,1.0224,0.9453,0.9007,0.8912,0.8912,0.8912,0.8912,0.8912,0.8912,0.9191,0.9567,1.0029,1.0575,0.0,0.0,0.0,0.0,0.0,0.0,0.0,0.0,0.0,0.0,0.0,1.3261,1.3214,1.3214,1.3077,1.2928,1.2693,1.2693,1.2618,1.2501,1.2241,1.2098,1.2091,1.1755,1.1584,0.0,0.0,0.0,0.0,1.1584,1.1584,1.1584,1.1584,1.1584,1.1584,1.1584,1.1525,1.1369,1.1247,1.107,1.0887,1.0738,1.0684,1.0684,1.0684,1.0684,1.0684,1.0684,1.0684,1.0684,1.0684,1.0684,1.0684,1.0684,1.0684,1.0684,1.0684,1.0684,1.0684,1.0684,1.0684,1.0684,1.0684,1.0684,1.0684,1.0684,1.0717,1.0717,1.0717,1.075,1.0689,1.0565,1.1869,1.3905,1.6773,1.7032,1.7718,1.9301,1.9401,1.9134,1.8517,1.849,1.8237,1.7622,1.7608,1.7608,1.7608,1.7608,1.7608,1.7608,1.7608,1.7608,1.0833,1.1572,1.207,1.1766,1.143,1.0975,1.0292,0.9802,0.9354,0.898,0.8912,0.8912,0.8912,0.8912,0.8946,0.9097,0.9281,0.9533,0.0,0.0,0.0,0.0,0.0,0.0,0.0,0.0,0.0,0.0,0.0,0.0,0.0,0.0,1.2983,1.2874,1.2827,1.2732,1.2576,1.2576,1.2549,1.2501,1.2241,1.2098,1.2091,1.1755,0.0,0.0,0.0,0.0,0.0,1.1584,1.1584,1.1584,1.1584,1.1584,1.1584,1.1584,1.1525,1.1382,1.1335,1.1158,1.0907,1.086,1.0772,1.0684,1.0684,1.0684,1.0684,1.0684,1.0684,1.0684,1.0684,1.0684,1.0684,1.0684,1.0684,1.0684,1.0684,1.0684,1.0684,1.0684,1.0684,1.0684,1.0684,1.0684,1.0684,1.0684,1.0684,1.0684,1.0684,1.0684,1.0663,1.0507,1.0838,1.1807,1.37,1.478,1.5577,1.609,1.612,1.5897,1.5378,1.5355,1.5592,1.6074,1.6088,1.6578,1.7608,1.7608,1.7608,1.7608,1.7608,1.7608,0.9562,1.0602,1.1138,1.088,1.0677,0.0,0.99,0.9551,0.9254,0.896,0.8463,0.8069,0.8069,0.7626,0.7271,0.7414,0.7536,0.7685,0.0,0.0,0.0,0.0,0.0,0.0,0.0,0.0,0.0,0.0,0.0,0.0,0.0,0.0,1.2861,1.2611,1.2605,1.2596,1.2501,1.2501,1.2501,1.2501,1.2302,1.2159,1.2091,1.1809,0.0,0.0,0.0,0.0,0.0,1.1584,1.1584,1.1584,1.1584,1.1586,1.1531,1.1531,1.1402,1.1226,1.1226,1.1029,1.0826,1.0826,1.0765,1.0684,1.0684,1.0684,1.0684,1.0684,1.0684,1.0684,1.0684,1.0684,1.0684,1.0684,1.0684,1.0684,1.0684,1.0684,1.0684,1.0684,1.0684,1.0684,1.0684,1.0684,1.0684,1.0684,1.0684,1.0684,1.0684,1.0684,1.0683,1.0588,1.0399,1.0647,1.1534,1.2877,1.3944,1.4569,1.4599,1.4408,1.4035,1.3944,1.4152,1.4673,1.4627,1.5064,1.5982,1.5982,1.5982,1.5982,1.5982,1.626,0.0,0.9695,1.0218,1.0214,1.0127,0.993,0.9515,0.9124,0.0,0.8615,0.7504,0.6538,0.6543,0.5421,0.4497,0.4522,0.4618,0.0,0.0,0.0,0.0,0.0,0.0,0.0,0.0,0.0,0.0,0.0,0.0,0.0,0.0,0.0,1.245,1.2289,1.2269,1.234,1.2488,1.2494,1.2494,1.2481,1.2338,1.2234,1.2091,1.1891,0.0,0.0,0.0,0.0,0.0,1.1584,1.1584,1.1619,1.1606,1.1518,1.1389,1.1382,1.1192,1.0914,1.0928,1.0826,1.0684,1.0684,1.0684,1.0684,1.0684,1.0684,1.0684,1.0684,1.0684,1.0684,1.0684,1.0684,1.0684,1.0684,1.0684,1.0684,1.0684,1.0684,1.0684,1.0684,1.0684,1.0684,1.0684,1.0684,1.0684,1.0684,1.0684,1.0684,1.0684,1.0684,1.0684,1.0684,1.046,1.0315,1.0315,1.1371,1.2659,1.4153,1.4242,1.4143,1.3888,1.3691,1.3531,1.3359,1.3304,1.3291,1.3291,1.3291,1.3291,1.3291,1.3291,1.3992,0.5076,0.0,0.7177,0.6005,0.6576,0.7107,0.0,0.5673,0.5592,0.5553,0.5261,0.5018,0.5023,0.4732,0.4531,0.463,0.0,0.0,0.0,0.0,0.0,0.0,0.0,0.0,0.0,0.0,0.0,0.0,0.0,0.0,0.0,0.0,0.8718,1.0218,1.0163,1.0854,1.2338,1.2447,1.2447,1.2338,1.2227,1.2132,1.2091,1.1789,0.0,0.0,0.0,0.0,1.1584,1.1584,1.1584,1.1606,1.1491,1.1423,1.1375,1.1295,1.1104,1.0928,1.1077,1.0941,1.0684,1.0684,1.0684,1.0684,1.0684,1.0684,1.0684,1.0684,1.0684,1.0684,1.0684,1.0684,1.0684,1.0684,1.0684,1.0684,1.0684,1.0684,1.0684,1.0684,1.0684,1.0684,1.0684,1.0684,1.0684,1.0684,1.0684,1.0684,1.0684,1.0684,1.0684,1.0684,1.046,1.0315,1.0315,1.0331,1.0543,1.0899,1.0929,1.0853,1.0695,1.0649,1.1004,1.18,1.2803,1.3291,1.3291,1.3291,1.3291,1.3291,1.3291,1.348,0.2163,0.3766,0.5238,0.44,0.4908,0.5404,0.4656,0.4496,0.4501,0.4494,0.3926,0.3442,0.3441,0.2895,0.2466,0.0,0.2555,0.0,0.0,0.0,0.0,0.0,0.0,0.0,0.0,0.0,0.0,0.0,0.0,0.0,0.0,0.0,0.7003,0.8063,0.8015,0.9385,1.2348,1.24,1.2366,1.2291,1.2173,1.2064,1.1952,1.1753,0.0,0.0,0.0,0.0,1.1584,1.1584,1.1579,1.1504,1.1423,1.1307,1.1144,1.1097,1.0934,1.0819,1.0934,1.0853,1.0684,1.0684,1.0684,1.0684,1.0684,1.0684,1.0684,1.0684,1.0684,1.0684,1.0684,1.0684,1.0684,1.0684,1.0684,1.0684,1.0684,1.0684,1.0684,1.0684,1.0684,1.0684,1.0684,1.0684,1.0684,1.0684,1.0684,1.0684,1.0684,1.0684,1.0684,1.0684,1.046,1.0315,1.0315,0.9998,0.9792,0.9792,0.9792,0.9724,0.9612,0.9612,0.9843,1.0321,1.0954,1.1265,1.1265,1.1265,1.1265,1.1265,1.1265,1.1647,0.0,0.1737,0.3551,0.3558,0.3849,0.4067,0.3868,0.3811,0.3799,0.3802,0.2787,0.1874,0.1853,0.0846,0.0,0.0,0.0,0.0,0.0,0.0,0.0,0.0,0.0,0.0,0.0,0.0,0.0,0.0,0.0,0.0,0.0,0.0,0.0,0.5804,0.5819,0.767,1.1535,1.1447,1.1378,1.1334,1.1214,1.1094,1.0901,1.1218,0.0,0.0,0.0,0.0,1.1584,1.1584,1.1545,1.1423,1.1375,1.1199,1.0941,1.0894,1.0799,1.0684,1.0684,1.0518,1.028,1.028,1.0114,0.9881,0.9881,0.9881,0.9881,0.9881,1.0286,1.0684,1.0684,1.0684,1.0684,1.0684,1.0684,1.0684,1.0684,1.0684,1.0684,1.0684,1.0684,1.0684,1.0684,1.0684,1.0684,1.0684,1.0684,1.0684,1.0684,1.0684,1.0684,1.0684,1.0473,1.0335,1.0315,1.0019,0.9812,0.9792,0.9792,0.9724,0.9612,0.9585,0.9442,0.9214,0.9015,0.8912,0.8912,0.8912,0.8912,0.8912,0.8912,0.9561,0.0,0.0315,0.0635,0.0641,0.1511,0.2073,0.0944,0.0695,0.0682,0.0683,0.0498,0.0338,0.0349,0.0146,0.0,0.0,0.0,0.0,0.0,0.0,0.0,0.0,0.0,0.0,0.0,0.0,0.0,0.0,0.0,0.0,0.0,0.0,0.0,0.354,0.3583,0.4754,0.7238,0.7223,0.7137,0.6952,0.694,0.6924,0.6945,0.8479,0.9157,0.0,0.0,1.1584,1.1584,1.1584,1.1606,1.1558,1.1336,1.1206,1.1132,1.0846,1.0704,1.0684,1.0684,0.9709,0.8402,0.8402,0.7431,0.6197,0.6197,0.6197,0.6197,0.6197,0.8374,1.0684,1.0684,1.0684,1.0684,1.0684,1.0684,1.0684,1.0684,1.0684,1.0684,1.0684,1.0684,1.0684,1.0684,1.0684,1.0684,1.0684,1.0684,1.0684,1.0684,1.0684,1.0684,1.0684,1.0561,1.0412,1.0322,1.0089,0.9927,0.9798,0.9792,0.9724,0.9612,0.9483,0.9362,0.9214,0.9015,0.8912,0.8912,0.8912,0.8912,0.8912,0.8912,0.9023,0.0,0.0,0.0,0.0,0.0451,0.0753,0.0132,0.0,0.0,0.0,0.0,0.0,0.0,0.0,0.0,0.0,0.0,0.0,0.0,0.0,0.0,0.0,0.0,0.0,0.0,0.0,0.0,0.0,0.0,0.0,0.0,0.0,0.0,0.0,0.1412,0.189,0.2887,0.2886,0.3933,0.5987,0.5913,0.5896,0.5929,0.6765,0.7147,0.7183,0.0,0.8456,0.8456,0.8456,0.8421,0.8347,0.8224,0.8124,0.8054,0.7895,0.7836,0.7836,0.7836,0.7303,0.6598,0.6598,0.6064,0.5396,0.5396,0.5396,0.5396,0.5396,0.6564,0.7836,0.7836,0.854,0.9238,0.9238,0.9981,1.0684,1.0684,1.0684,1.0684,1.0684,1.0684,1.0684,1.0684,1.0684,1.0684,1.0684,1.0684,1.0684,1.0684,1.0684,1.0684,1.0684,1.0582,1.0466,1.0399,1.015,0.9954,0.9798,0.9717,0.9713,0.9697,0.9451,0.9294,0.9301,0.9027,0.8912,0.8912,0.8912,0.8912,0.8912,0.8912,0.8912,0.0,0.0,0.0,0.0,0.0,0.0,0.0,0.0,0.0,0.0,0.0,0.0,0.0,0.0,0.0,0.0,0.0,0.0,0.0,0.0,0.0,0.0,0.0,0.0,0.0,0.0,0.0,0.0,0.0,0.0,0.0,0.0,0.0,0.0,0.0,0.0,0.0,0.0,0.1552,0.4604,0.4488,0.4434,0.4467,0.4924,0.5132,0.5132,0.562,0.5793,0.5793,0.5793,0.5723,0.5662,0.5622,0.5512,0.541,0.5386,0.5409,0.5386,0.5402,0.5108,0.4781,0.4766,0.4492,0.4124,0.4124,0.4124,0.4124,0.4124,0.4124,0.4325,0.5195,0.6398,0.7398,0.7398,0.8435,0.9443,0.9443,0.9443,0.9443,0.9443,0.9443,0.9443,0.9443,0.9443,0.9609,1.0014,1.0081,1.0213,1.0651,1.0684,1.0684,1.0684,1.0616,1.0527,1.0493,1.0191,0.9967,0.9852,0.971,0.9693,0.9737,0.9442,0.9308,0.9356,0.9103,0.8946,0.8912,0.8912,0.8912,0.8912,0.8912,0.8912,0.0,0.0,0.0,0.0,0.0,0.0,0.0,0.0,0.0,0.0,0.0,0.0,0.0,0.0,0.0,0.0,0.0,0.0,0.0,0.0,0.0,0.0,0.0,0.0,0.0,0.0,0.0,0.0,0.0,0.0,0.0,0.0,0.0,0.0,0.0,0.0,0.0,0.0,0.0146,0.0438,0.0438,0.0401,0.0474,0.2298,0.3105,0.3209,0.5031,0.581,0.581,0.581,0.5806,0.5757,0.5642,0.5501,0.5406,0.5399,0.5406,0.5389,0.5386,0.4296,0.2902,0.2899,0.1747,0.0404,0.0404,0.0404,0.0404,0.0404,0.0404,0.1176,0.4526,0.5496,0.5596,0.5596,0.5696,0.5797,0.5797,0.5797,0.5797,0.5797,0.5797,0.5797,0.5797,0.5797,0.6331,0.7964,0.8197,0.8801,1.0485,1.0684,1.0684,1.0684,1.0677,1.0649,1.0507,1.0191,0.9984,0.997,0.9859,0.9717,0.9632,0.9591,0.9449,0.9228,0.9179,0.9104,0.8912,0.8912,0.8912,0.8912,0.8912,0.8912,0.0,0.0,0.0,0.0,0.0,0.0,0.0,0.0,0.0,0.0,0.0,0.0,0.0,0.0,0.0,0.0,0.0,0.0,0.0,0.0,0.0,0.0,0.0,0.0,0.0,0.0,0.0,0.0,0.0,0.0,0.0,0.0,0.0,0.0,0.0,0.0,0.0,0.0,0.0,0.0,0.0,0.0,0.0036,0.0746,0.1094,0.1129,0.1858,0.2204,0.2204,0.2204,0.2204,0.2201,0.2137,0.2074,0.2049,0.2049,0.2056,0.203,0.2052,0.1594,0.1027,0.1013,0.0541,0.0,0.0,0.0,0.0,0.0,0.0,0.0303,0.168,0.2887,0.3722,0.3722,0.4593,0.5396,0.5396,0.5396,0.5396,0.5396,0.5396,0.5396,0.5396,0.5396,0.5629,0.6297,0.6398,0.6631,0.7303,0.7403,0.7403,0.7403,0.8368,0.9417,1.0403,1.031,1.0123,1.0021,0.9873,0.9765,0.971,0.9659,0.9557,0.9442,0.9369,0.9294,0.9211,0.9211,0.9211,0.9211,0.9211,0.9211,0.0,0.0,0.0,0.0,0.0,0.0,0.0,0.0,0.0,0.0,0.0,0.0,0.0,0.0,0.0,0.0,0.0,0.0,0.0,0.0,0.0,0.0,0.0,0.0,0.0,0.0,0.0,0.0,0.0,0.0,0.0,0.0,0.0,0.0,0.0,0.0,0.0,0.0,0.0,0.0,0.0,0.0,0.0,0.0,0.0,0.0,0.0,0.0,0.0,0.0,0.0,0.0,0.0,0.0,0.0,0.0,0.0,0.0,0.0,0.0,0.0,0.0,0.0,0.0,0.0,0.0,0.0,0.0,0.0,0.0,0.0,0.0908,0.1848,0.1848,0.2786,0.3689,0.3689,0.3689,0.3689,0.3689,0.3689,0.3689,0.3689,0.3689,0.389,0.4459,0.4559,0.476,0.5329,0.5396,0.5396,0.5396,0.6464,0.7635,0.8787,0.8758,0.8822,0.9205,0.9125,0.9268,0.9792,0.9697,0.9652,0.9612,0.9503,0.9429,0.941,0.941,0.941,0.941,0.941,0.941,0.0,0.0,0.0,0.0,0.0,0.0,0.0,0.0,0.0,0.0,0.0,0.0,0.0,0.0,0.0,0.0,0.0,0.0,0.0,0.0,0.0,0.0,0.0,0.0,0.0,0.0,0.0,0.0,0.0,0.0,0.0,0.0,0.0,0.0,0.0,0.0,0.0,0.0,0.0,0.0,0.0,0.0,0.0,0.0,0.0,0.0,0.0,0.0,0.0,0.0,0.0,0.0,0.0,0.0,0.0,0.0,0.0,0.0,0.0,0.0,0.0,0.0,0.0,0.0,0.0,0.0,0.0,0.0,0.0,0.0,0.0,0.0,0.0,0.0,0.0,0.0,0.0,0.0,0.0,0.0,0.0,0.0,0.0,0.0,0.0605,0.2417,0.2685,0.332,0.5128,0.5362,0.5362,0.5362,0.5362,0.5396,0.5396,0.5223,0.581,0.7476,0.7454,0.8094,0.9731,0.9792,0.9724,0.9612,0.9612,0.9537,0.9417,0.9417,0.9417,0.9417,0.9417,0.9417,0.0,0.0,0.0,0.0,0.0,0.0,0.0,0.0,0.0,0.0,0.0,0.0,0.0,0.0,0.0,0.0,0.0,0.0,0.0,0.0,0.0,0.0,0.0,0.0,0.0,0.0,0.0,0.0,0.0,0.0,0.0,0.0,0.0,0.0,0.0,0.0,0.0,0.0,0.0,0.0,0.0,0.0,0.0,0.0,0.0,0.0,0.0,0.0,0.0,0.0,0.0,0.0,0.0,0.0,0.0,0.0,0.0,0.0,0.0,0.0,0.0,0.0,0.0,0.0,0.0,0.0,0.0,0.0,0.0,0.0,0.0,0.0,0.0,0.0,0.0,0.0,0.0,0.0,0.0,0.0,0.0,0.0,0.0,0.0,0.0168,0.0706,0.0807,0.1009,0.1545,0.1613,0.2083,0.3354,0.3488,0.4024,0.5295,0.5223,0.5326,0.581,0.5714,0.6905,0.97,0.9792,0.9771,0.9731,0.9724,0.9704,0.9693,0.9693,0.9693,0.9693,0.9693,0.9693,0.0,0.0,0.0,0.0,0.0,0.0,0.0,0.0,0.0,0.0,0.0,0.0,0.0,0.0,0.0,0.0,0.0,0.0,0.0,0.0,0.0,0.0,0.0,0.0,0.0,0.0,0.0,0.0,0.0,0.0,0.0,0.0,0.0,0.0,0.0,0.0,0.0,0.0,0.0,0.0,0.0,0.0,0.0,0.0,0.0,0.0,0.0,0.0,0.0,0.0,0.0,0.0,0.0,0.0,0.0,0.0,0.0,0.0,0.0,0.0,0.0,0.0,0.0,0.0,0.0,0.0,0.0,0.0,0.0,0.0,0.0,0.0,0.0,0.0,0.0,0.0,0.0,0.0,0.0,0.0,0.0,0.0,0.0,0.0,0.0,0.0,0.0,0.0,0.0,0.0,0.0404,0.1512,0.1613,0.2083,0.3155,0.3154,0.3371,0.4018,0.4004,0.5115,0.7736,0.7847,0.816,0.8836,0.8836,0.9171,0.9792,0.9792,0.9792,0.9792,0.9792,0.9792,0.0,0.0,0.0,0.0,0.0,0.0,0.0,0.0,0.0,0.0,0.0,0.0,0.0,0.0,0.0,0.0,0.0,0.0,0.0,0.0,0.0,0.0,0.0,0.0,0.0,0.0,0.0,0.0,0.0,0.0,0.0,0.0,0.0,0.0,0.0,0.0,0.0,0.0,0.0,0.0,0.0,0.0,0.0,0.0,0.0,0.0,0.0,0.0,0.0,0.0,0.0,0.0,0.0,0.0,0.0,0.0,0.0,0.0,0.0,0.0,0.0,0.0,0.0,0.0,0.0,0.0,0.0,0.0,0.0,0.0,0.0,0.0,0.0,0.0,0.0,0.0,0.0,0.0,0.0,0.0,0.0,0.0,0.0,0.0,0.0,0.0,0.0,0.0,0.0,0.0,0.0,0.0,0.0,0.0,0.0,0.0,0.0658,0.2169,0.2274,0.2931,0.4395,0.4737,0.5621,0.7144,0.7179,0.7881,0.9359,0.9359,0.9359,0.9359,0.9511,0.9572,0.0,0.0,0.0,0.0,0.0,0.0,0.0,0.0,0.0,0.0,0.0,0.0,0.0,0.0,0.0,0.0,0.0,0.0,0.0,0.0,0.0,0.0,0.0,0.0,0.0,0.0,0.0,0.0,0.0,0.0,0.0,0.0,0.0,0.0,0.0,0.0,0.0,0.0,0.0,0.0,0.0,0.0,0.0,0.0,0.0,0.0,0.0,0.0,0.0,0.0,0.0,0.0,0.0,0.0,0.0,0.0,0.0,0.0,0.0,0.0,0.0,0.0,0.0,0.0,0.0,0.0,0.0,0.0,0.0,0.0,0.0,0.0,0.0,0.0,0.0,0.0,0.0,0.0,0.0,0.0,0.0,0.0,0.0,0.0,0.0,0.0,0.0,0.0,0.0,0.0,0.0,0.0,0.0,0.0,0.0,0.0,0.0165,0.0527,0.0551,0.0703,0.104,0.3534,0.5069,0.5437,0.5437,0.5621,0.5957,0.5957,0.5957,0.5988,0.7301,0.7911,0.0,0.0,0.0,0.0,0.0,0.0,0.0,0.0,0.0,0.0,0.0,0.0,0.0,0.0,0.0,0.0,0.0,0.0,0.0,0.0,0.0,0.0,0.0,0.0,0.0,0.0,0.0,0.0,0.0,0.0,0.0,0.0,0.0,0.0,0.0,0.0,0.0,0.0,0.0,0.0,0.0,0.0,0.0,0.0,0.0,0.0,0.0,0.0,0.0,0.0,0.0,0.0,0.0,0.0,0.0,0.0,0.0,0.0,0.0,0.0,0.0,0.0,0.0,0.0,0.0,0.0,0.0,0.0,0.0,0.0,0.0,0.0,0.0,0.0,0.0,0.0,0.0,0.0,0.0,0.0,0.0,0.0,0.0,0.0,0.0,0.0,0.0,0.0,0.0,0.0,0.0,0.0,0.0,0.0,0.0,0.0,0.0,0.0,0.0,0.0,0.0,0.1649,0.2935,0.3722,0.3748,0.4119,0.4885,0.4885,0.4885,0.4916,0.5804,0.6198,0.0,0.0,0.0,0.0,0.0,0.0,0.0,0.0,0.0,0.0,0.0,0.0,0.0,0.0,0.0,0.0,0.0,0.0,0.0,0.0,0.0,0.0,0.0,0.0,0.0,0.0,0.0,0.0,0.0,0.0,0.0,0.0,0.0,0.0,0.0,0.0,0.0,0.0,0.0,0.0,0.0,0.0,0.0,0.0,0.0,0.0,0.0,0.0,0.0,0.0,0.0,0.0,0.0,0.0,0.0,0.0,0.0,0.0,0.0,0.0,0.0,0.0,0.0,0.0,0.0,0.0,0.0,0.0,0.0,0.0,0.0,0.0,0.0,0.0,0.0,0.0,0.0,0.0,0.0,0.0,0.0,0.0,0.0,0.0,0.0,0.0,0.0,0.0,0.0,0.0,0.0,0.0,0.0,0.0,0.0,0.0,0.0,0.0,0.0,0.0,0.0,0.0,0.064,0.2041,0.2067,0.2718,0.4057,0.4057,0.4057,0.4057,0.4364,0.4487,0.0,0.0,0.0,0.0,0.0,0.0,0.0,0.0,0.0,0.0,0.0,0.0,0.0,0.0,0.0,0.0,0.0,0.0,0.0,0.0,0.0,0.0,0.0,0.0,0.0,0.0,0.0,0.0,0.0,0.0,0.0,0.0,0.0,0.0,0.0,0.0,0.0,0.0,0.0,0.0,0.0,0.0,0.0,0.0,0.0,0.0,0.0,0.0,0.0,0.0,0.0,0.0,0.0,0.0,0.0,0.0,0.0,0.0,0.0,0.0,0.0,0.0,0.0,0.0,0.0,0.0,0.0,0.0,0.0,0.0,0.0,0.0,0.0,0.0,0.0,0.0,0.0,0.0,0.0,0.0,0.0,0.0,0.0,0.0,0.0,0.0,0.0,0.0,0.0,0.0,0.0,0.0,0.0,0.0,0.0,0.0,0.0,0.0,0.0,0.0,0.0,0.0,0.0098,0.0315,0.0347,0.0439,0.0648,0.0648,0.0648,0.0679,0.2156,0.2831,0.0,0.0,0.0,0.0,0.0,0.0,0.0,0.0,0.0,0.0,0.0,0.0,0.0,0.0,0.0,0.0,0.0,0.0,0.0,0.0,0.0,0.0,0.0,0.0,0.0,0.0,0.0,0.0,0.0,0.0,0.0,0.0,0.0,0.0,0.0,0.0,0.0,0.0,0.0,0.0,0.0,0.0,0.0,0.0,0.0,0.0,0.0,0.0,0.0,0.0,0.0,0.0,0.0,0.0,0.0,0.0,0.0,0.0,0.0,0.0,0.0,0.0,0.0,0.0,0.0,0.0,0.0,0.0,0.0,0.0,0.0,0.0,0.0,0.0,0.0,0.0,0.0,0.0,0.0,0.0,0.0,0.0,0.0,0.0,0.0,0.0,0.0,0.0,0.0,0.0,0.0,0.0,0.0,0.0,0.0,0.0,0.0,0.0,0.0,0.0,0.0,0.0,0.0,0.0,0.0,0.0,0.0,0.0,0.0,0.0031,0.0771,0.111,0.0,0.0,0.0,0.0,0.0,0.0,0.0,0.0,0.0,0.0,0.0,0.0,0.0,0.0,0.0,0.0,0.0,0.0,0.0,0.0,0.0,0.0,0.0,0.0,0.0,0.0,0.0,0.0,0.0,0.0,0.0,0.0,0.0,0.0,0.0,0.0,0.0,0.0,0.0,0.0,0.0,0.0,0.0,0.0,0.0,0.0,0.0,0.0,0.0,0.0,0.0,0.0,0.0,0.0,0.0,0.0,0.0,0.0,0.0,0.0,0.0,0.0,0.0,0.0,0.0,0.0,0.0,0.0,0.0,0.0,0.0,0.0,0.0,0.0,0.0,0.0,0.0,0.0,0.0,0.0,0.0,0.0,0.0,0.0,0.0,0.0,0.0,0.0,0.0,0.0,0.0,0.0,0.0,0.0,0.0,0.0,0.0,0.0,0.0,0.0,0.0,0.0,0.0,0.0,0.0,0.0,0.0,0.0,0.0,0.0,0.0,0.0,0.0,0.0,0.0,0.0,0.0,0.0,0.0,0.0,0.0,0.0,0.0,0.0,0.0,0.0,0.0,0.0,0.0,0.0,0.0,0.0,0.0,0.0,0.0,0.0,0.0,0.0,0.0,0.0,0.0,0.0,0.0,0.0,0.0,0.0,0.0,0.0,0.0,0.0,0.0,0.0,0.0,0.0,0.0,0.0,0.0,0.0,0.0,0.0,0.0,0.0,0.0,0.0,0.0,0.0,0.0,0.0,0.0,0.0,0.0,0.0,0.0,0.0,0.0,0.0,0.0,0.0,0.0,0.0,0.0,0.0,0.0,0.0,0.0,0.0,0.0,0.0,0.0,0.0,0.0,0.0,0.0,0.0,0.0,0.0,0.0,0.0,0.0,0.0,0.0,0.0,0.0,0.0,0.0,0.0,0.0,0.0,0.0,0.0,0.0,0.0,0.0,0.0,0.0,0.0,0.0,0.0,0.0,0.0,0.0,0.0,0.0,0.0,0.0,0.0,0.0,0.0,0.0,0.0,0.0,0.0,0.0,0.0,0.0,0.0,0.0,0.0,0.0,0.0,0.0,0.0,0.0,0.0,0.0,0.0,0.0,0.0,0.0,0.0,0.0,0.0,0.0,0.0,0.0,0.0,0.0,0.0,0.0,0.0,0.0,0.0,0.0,0.0,0.0,0.0,0.0,0.0,0.0,0.0,0.0,0.0,0.0,0.0,0.0,0.0,0.0,0.0,0.0,0.0,0.0,0.0,0.0,0.0,0.0,0.0,0.0,0.0,0.0,0.0,0.0,0.0,0.0,0.0,0.0,0.0,0.0,0.0,0.0,0.0,0.0,0.0,0.0,0.0,0.0,0.0,0.0,0.0,0.0,0.0,0.0,0.0,0.0,0.0,0.0,0.0,0.0,0.0,0.0,0.0,0.0,0.0,0.0,0.0,0.0,0.0,0.0,0.0,0.0,0.0,0.0,0.0,0.0,0.0,0.0,0.0,0.0,0.0,0.0,0.0,0.0,0.0,0.0,0.0,0.0,0.0,0.0,0.0,0.0,0.0,0.0,0.0,0.0,0.0,0.0,0.0,0.0,0.0,0.0,0.0,0.0,0.0,0.0,0.0,0.0,0.0,0.0,0.0,0.0,0.0,0.0,0.0,0.0,0.0,0.0,0.0,0.0,0.0,0.0,0.0,0.0,0.0,0.0,0.0,0.0,0.0,0.0,0.0,0.0,0.0,0.0,0.0,0.0,0.0,0.0,0.0,0.0,0.0,0.0,0.0,0.0,0.0,0.0,0.0,0.0,0.0,0.0,0.0,0.0,0.0,0.0,0.0,0.0,0.0,0.0,0.0,0.0,0.0,0.0,0.0,0.0,0.0,0.0,0.0,0.0,0.0,0.0,0.0,0.0,0.0,0.0,0.0,0.0,0.0,0.0,0.0,0.0,0.0,0.0,0.0,0.0,0.0,0.0,0.0,0.0,0.0,0.0,0.0,0.0,0.0,0.0,0.0,0.0,0.0,0.0,0.0,0.0,0.0,0.0,0.0,0.0,0.0,0.0,0.0,0.0,0.0,0.0,0.0,0.0,0.0,0.0,0.0,0.0,0.0,0.0,0.0,0.0,0.0,0.0,0.0,0.0,0.0,0.0,0.0,0.0,0.0,0.0,0.0,0.0,0.0,0.0,0.0,0.0,0.0,0.0,0.0,0.0,0.0,0.0,0.0,0.0,0.0,0.0,0.0,0.0,0.0,0.0,0.0,0.0,0.0,0.0,0.0,0.0,0.0,0.0,0.0,0.0,0.0,0.0,0.0,0.0,0.0,0.0,0.0,0.0,0.0,0.0,0.0,0.0,0.0,0.0,0.0,0.0,0.0,0.0,0.0,0.0,0.0,0.0,0.0,0.0,0.0,0.0,0.0,0.0,0.0,0.0,0.0,0.0,0.0,0.0,0.0,0.0,0.0,0.0,0.0,0.0,0.0,0.0,0.0,0.0,0.0,0.0,0.0,0.0,0.0,0.0,0.0,0.0,0.0,0.0,0.0,0.0,0.0,0.0,0.0,0.0,0.0,0.0,0.0,0.0,0.0,0.0,0.0,0.0,0.0,0.0,0.0,0.0,0.0,0.0,0.0,0.0,0.0,0.0,0.0,0.0,0.0,0.0,0.0,0.0,0.0,0.0,0.0,0.0,0.0,0.0,0.0,0.0,0.0,0.0,0.0,0.0,0.0,0.0,0.0,0.0,0.0,0.0,0.0,0.0,0.0,0.0,0.0,0.0,0.0,0.0,0.0,0.0,0.0,0.0,0.0,0.0,0.0,0.0,0.0,0.0,0.0,0.0,0.0,0.0,0.0,0.0,0.0,0.0,0.0,0.0,0.0,0.0,0.0,0.0,0.0,0.0,0.0,0.0,0.0,0.0,0.0,0.0,0.0,0.0,0.0,0.0,0.0,0.0,0.0,0.0,0.0,0.0,0.0,0.0,0.0,0.0,0.0,0.0,0.0,0.0,0.0,0.0,0.0,0.0,0.0,0.0,0.0,0.0,0.0,0.0,0.0,0.0,0.0,0.0,0.0,0.0,0.0,0.0,0.0,0.0,0.0,0.0,0.0,0.0,0.0,0.0,0.0,0.0,0.0,0.0,0.0,0.0,0.0,0.0,0.0,0.0,0.0,0.0,0.0,0.0,0.0,0.0,0.0,0.0,0.0,0.0,0.0,0.0,0.0,0.0,0.0,0.0,0.0,0.0,0.0,0.0,0.0,0.0,0.0,0.0,0.0,0.0,0.0,0.0,0.0,0.0,0.0,0.0,0.0,0.0,0.0,0.0,0.0,0.0,0.0,0.0,0.0,0.0,0.0,0.0,0.0,0.0,0.0,0.0,0.0,0.0,0.0,0.0,0.0,0.0,0.0,0.0,0.0,0.0,0.0,0.0,0.0,0.0,0.0,0.0,0.0,0.0,0.0,0.0,0.0,0.0,0.0,0.0,0.0,0.0,0.0,0.0,0.0,0.0,0.0,0.0,0.0,0.0,0.0,0.0,0.0,0.0,0.0,0.0,0.0,0.0,0.0,0.0,0.0,0.0,0.0,0.0,0.0,0.0,0.0,0.0,0.0,0.0,0.0,0.0,0.0,0.0,0.0,0.0,0.0,0.0,0.0,0.0,0.0,0.0,0.0,0.0,0.0,0.0,0.0,0.0,0.0,0.0,0.0,0.0,0.0,0.0,0.0,0.0,0.0,0.0,0.0,0.0,0.0,0.0,0.0,0.0,0.0,0.0,0.0,0.0,0.0,0.0,0.0,0.0,0.0,0.0,0.0,0.0,0.0,0.0,0.0,0.0,0.0,0.0,0.0,0.0,0.0,0.0,0.0,0.0,0.0,0.0,0.0,0.0,0.0,0.0,0.0,0.0,0.0,0.0,0.0,0.0,0.0,0.0,0.0,0.0,0.0,0.0,0.0,0.0,0.0,0.0,0.0,0.0,0.0,0.0,0.0,0.0,0.0,0.0,0.0,0.0,0.0,0.0,0.0,0.0,0.0,0.0,0.0,0.0,0.0,0.0,0.0,0.0,0.0,0.0,0.0,0.0,0.0,0.0,0.0,0.0,0.0,0.0,0.0,0.0,0.0,0.0,0.0,0.0,0.0,0.0,0.0,0.0,0.0,0.0,0.0,0.0,0.0,0.0,0.0,0.0,0.0,0.0,0.0,0.0,0.0,0.0,0.0,0.0,0.0,0.0,0.0,0.0,0.0,0.0,0.0,0.0,0.0,0.0,0.0,0.0,0.0,0.0,0.0,0.0,0.0,0.0,0.0,0.0,0.0,0.0,0.0,0.0,0.0,0.0,0.0,0.0,0.0,0.0,0.0,0.0,0.0,0.0,0.0,0.0,0.0,0.0,0.0,0.0,0.0,0.0,0.0,0.0,0.0,0.0,0.0,0.0,0.0,0.0,0.0,0.0,0.0,0.0,0.0,0.0,0.0,0.0,0.0,0.0,0.0,0.0,0.0,0.0,0.0,0.0,0.0,0.0,0.0,0.0,0.0,0.0,0.0,0.0,0.0,0.0,0.0,0.0,0.0,0.0,0.0,0.0,0.0,0.0,0.0,0.0,0.0,0.0,0.0,0.0,0.0,0.0,0.0,0.0,0.0,0.0,0.0,0.0,0.0,0.0,0.0,0.0,0.0,0.0,0.0,0.0,0.0,0.0,0.0,0.0,0.0,0.0,0.0,0.0,0.0,0.0,0.0,0.0,0.0,0.0,0.0,0.0,0.0,0.0,0.0,0.0,0.0,0.0,0.0,0.0,0.0,0.0,0.0,0.0,0.0,0.0,0.0,0.0,0.0,0.0,0.0,0.0,0.0,0.0,0.0,0.0,0.0,0.0,0.0,0.0,0.0,0.0,0.0,0.0,0.0,0.0,0.0,0.0,0.0,0.0,0.0,0.0,0.0,0.0,0.0,0.0,0.0,0.0,0.0,0.0,0.0,0.0,0.0,0.0,0.0,0.0,0.0,0.0,0.0,0.0,0.0,0.0,0.0,0.0,0.0,0.0,0.0,0.0,0.0,0.0,0.0,0.0,0.0,0.0,0.0,0.0,0.0,0.0,0.0,0.0,0.0,0.0,0.0,0.0,0.0,0.0,0.0,0.0,0.0,0.0,0.0,0.0,0.0,0.0,0.0,0.0,0.0,0.0,0.0,0.0,0.0,0.0,0.0,0.0,0.0,0.0,0.0,0.0,0.0,0.0,0.0,0.0,0.0,0.0,0.0,0.0,0.0,0.0,0.0,0.0,0.0,0.0,0.0,0.0,0.0,0.0,0.0,0.0,0.0,0.0,0.0,0.0,0.0,0.0,0.0,0.0,0.0,0.0,0.0,0.0,0.0,0.0,0.0,0.0,0.0,0.0,0.0,0.0,0.0,0.0,0.0,0.0,0.0,0.0,0.0,0.0,0.0,0.0,0.0,0.0,0.0,0.0,0.0,0.0,0.0,0.0,0.0,0.0,0.0,0.0,0.0,0.0,0.0,0.0,0.0,0.0,0.0,0.0,0.0,0.0,0.0,0.0,0.0,0.0,0.0,0.0,0.0,0.0,0.0,0.0,0.0,0.0,0.0,0.0,0.0,0.0,0.0,0.0,0.0,0.0,0.0,0.0,0.0,0.0,0.0,0.0,0.0,0.0,0.0,0.0,0.0,0.0,0.0,0.0,0.0,0.0,0.0,0.0,0.0,0.0,0.0,0.0,0.0,0.0,0.0,0.0,0.0,0.0,0.0,0.0,0.0,0.0,0.0,0.0,0.0,0.0,0.0,0.0,0.0,0.0,0.0,0.0,0.0,0.0,0.0,0.0,0.0,0.0,0.0,0.0,0.0,0.0,0.0,0.0,0.0,0.0,0.0,0.0,0.0,0.0,0.0,0.0,0.0,0.0,0.0,0.0,0.0,0.0,0.0,0.0,0.0,0.0,0.0,0.0,0.0,0.0,0.0,0.0,0.0,0.0,0.0,0.0,0.0,0.0,0.0,0.0,0.0,0.0,0.0,0.0,0.0,0.0,0.0,0.0,0.0,0.0,0.0,0.0,0.0,0.0,0.0,0.0,0.0,0.0,0.0,0.0,0.0,0.0,0.0,0.0,0.0,0.0,0.0,0.0,0.0,0.0,0.0,0.0,0.0,0.0,0.0,0.0,0.0,0.0,0.0,0.0,0.0,0.0,0.0,0.0,0.0,0.0,0.0,0.0,0.0,0.0,0.0,0.0,0.0,0.0,0.0,0.0,0.0,0.0,0.0,0.0,0.0,0.0,0.0,0.0,0.0,0.0,0.0,0.0,0.0,0.0,0.0,0.0,0.0,0.0,0.0,0.0,0.0,0.0,0.0,0.0,0.0,0.0,0.0,0.0,0.0,0.0,0.0,0.0,0.0,0.0,0.0,0.0,0.0,0.0,0.0,0.0,0.0,0.0,0.0,0.0,0.0,0.0,0.0,0.0,0.0,0.0,0.0,0.0,0.0,0.0,0.0,0.0,0.0,0.0,0.0,0.0,0.0,0.0,0.0,0.0,0.0,0.0,0.0,0.0,0.0,0.0,0.0,0.0,0.0,0.0,0.0,0.0,0.0,0.0,0.0,0.0,0.0,0.0,0.0,0.0,0.0,0.0,0.0,0.0,0.0,0.0,0.0,0.0,0.0,0.0,0.0,0.0,0.0,0.0,0.0,0.0,0.0,0.0,0.0,0.0,0.0,0.0,0.0,0.0,0.0,0.0,0.0,0.0,0.0,0.0,0.0,0.0,0.0,0.0,0.0,0.0,0.0,0.0,0.0,0.0,0.0,0.0,0.0,0.0,0.0,0.0,0.0,0.0,0.0,0.0,0.0,0.0,0.0,0.0,0.0,0.0,0.0,0.0,0.0,0.0,0.0,0.0,0.0,0.0,0.0,0.0,0.0,0.0,0.0,0.0,0.0,0.0,0.0,0.0,0.0,0.0,0.0,0.0,0.0,0.0,0.0,0.0,0.0,0.0,0.0,0.0,0.0,0.0,0.0,0.0,0.0,0.0,0.0,0.0,0.0,0.0,0.0,0.0,0.0,0.0,0.0,0.0,0.0,0.0,0.0,0.0,0.0,0.0,0.0,0.0,0.0,0.0,0.0,0.0,0.0,0.0,0.0,0.0,0.0,0.0,0.0,0.0,0.0,0.0,0.0,0.0,0.0,0.0,0.0,0.0,0.0,0.0,0.0,0.0,0.0,0.0,0.0,0.0,0.0,0.0,0.0,0.0,0.0,0.0,0.0,0.0,0.0,0.0,0.0,0.0,0.0,0.0,0.0,0.0,0.0,0.0,0.0,0.0,0.0,0.0,0.0,0.0,0.0,0.0,0.0,0.0,0.0,0.0,0.0,0.0,0.0,0.0,0.0,0.0,0.0,0.0,0.0,0.0,0.0,0.0,0.0,0.0,0.0,0.0,0.0,0.0,0.0,0.0,0.0,0.0,0.0,0.0,0.0,0.0,0.0,0.0,0.0,0.0,0.0,0.0,0.0,0.0,0.0,0.0,0.0,0.0,0.0,0.0,0.0,0.0,0.0,0.0,0.0,0.0,0.0,0.0,0.0,0.0,0.0,0.0,0.0,0.0,0.0,0.0,0.0,0.0,0.0,0.0,0.0,0.0,0.0,0.0,0.0,0.0,0.0,0.0,0.0,0.0,0.0,0.0,0.0,0.0,0.0,0.0,0.0,0.0,0.0,0.0,0.0,0.0,0.0,0.0,0.0,0.0,0.0,0.0,0.0,0.0,0.0,0.0,0.0,0.0,0.0,0.0,0.0,0.0,0.0,0.0,0.0,0.0,0.0,0.0,0.0,0.0,0.0,0.0,0.0,0.0,0.0,0.0,0.0,0.0,0.0,0.0,0.0,0.0,0.0,0.0,0.0,0.0,0.0,0.0,0.0,0.0,0.0,0.0,0.0,0.0,0.0,0.0,0.0,0.0,0.0,0.0,0.0,0.0,0.0,0.0,0.0,0.0,0.0,0.0,0.0,0.0,0.0,0.0,0.0,0.0,0.0,0.0,0.0,0.0,0.0,0.0,0.0,0.0,0.0,0.0,0.0,0.0,0.0,0.0,0.0,0.0,0.0,0.0,0.0,0.0,0.0,0.0,0.0,0.0,0.0,0.0,0.0,0.0,0.0,0.0,0.0,0.0,0.0,0.0,0.0,0.0,0.0,0.0,0.0,0.0,0.0,0.0,0.0,0.0,0.0,0.0,0.0,0.0,0.0,0.0,0.0,0.0,0.0,0.0,0.0,0.0,0.0,0.0,0.0,0.0,0.0,0.0,0.0,0.0,0.0,0.0,0.0,0.0,0.0,0.0,0.0,0.0,0.0,0.0,0.0,0.0,0.0,0.0,0.0,0.0,0.0,0.0,0.0,0.0,0.0,0.0,0.0]},{"header":{"parameterUnit":"m.s-1","parameterCategory":1,"la1":30.6,"la2":29.2853,"lo1":-89.7004,"lo2":-87.6739,"dy":0.0162,"dx":0.0183,"nx":112,"ny":82,"refTime":"2023-04-22T06:00:00:Z","depth":0,"parameterNumber":3,"parameterNumberName":"V-component_of_WINDS"},"data":[0.0,0.0,0.0,0.0,0.0,0.0,0.0,0.0,0.0,0.0,0.0,0.0,0.0,0.0,0.0,0.0,0.0,0.0,0.0,0.0,0.0,0.0,0.0,0.0,0.0,0.0,0.0,0.0,0.0,0.0,0.0,0.0,0.0,0.0,0.0,0.0,0.0,0.0,0.0,0.0,0.0,0.0,0.0,0.0,0.0,0.0,0.0,0.0,0.0,0.0,0.0,0.0,0.0,0.0,0.0,0.0,0.0,0.0,0.0,0.0,0.0,0.0,0.0,0.0,0.0,0.0,0.0,0.0,0.0,0.0,0.0,0.0,0.0,0.0,0.0,0.0,0.0,0.0,0.0,0.0,0.0,0.0,0.0,0.0,0.0,0.0,0.0,0.0,0.0,0.0,0.0,3.7021,3.8928,4.0113,4.0113,4.0113,3.8814,3.5802,0.0,0.0,0.0,0.0,0.0,0.0,0.0,0.0,0.0,0.0,0.0,0.0,0.0,0.0,0.0,0.0,0.0,0.0,0.0,0.0,0.0,0.0,0.0,0.0,0.0,0.0,0.0,0.0,0.0,0.0,0.0,0.0,0.0,0.0,0.0,0.0,0.0,0.0,0.0,0.0,0.0,0.0,0.0,0.0,0.0,0.0,0.0,0.0,0.0,0.0,0.0,0.0,0.0,0.0,0.0,0.0,0.0,0.0,0.0,0.0,0.0,0.0,0.0,0.0,0.0,0.0,0.0,0.0,0.0,0.0,0.0,0.0,0.0,0.0,0.0,0.0,0.0,0.0,0.0,0.0,0.0,0.0,0.0,0.0,0.0,0.0,0.0,0.0,0.0,0.0,0.0,0.0,0.0,0.0,0.0,0.0,0.0,0.0,0.0,0.0,0.0,0.0,0.0,0.0,3.569,3.8374,3.9525,4.0113,4.0113,4.0113,3.8814,3.5802,0.0,0.0,0.0,0.0,0.0,0.0,0.0,0.0,0.0,0.0,0.0,0.0,0.0,0.0,0.0,0.0,0.0,0.0,0.0,0.0,0.0,0.0,0.0,0.0,0.0,0.0,0.0,0.0,0.0,0.0,0.0,0.0,0.0,0.0,0.0,0.0,0.0,0.0,0.0,0.0,0.0,0.0,0.0,0.0,0.0,0.0,0.0,0.0,0.0,0.0,0.0,0.0,0.0,0.0,0.0,0.0,0.0,0.0,0.0,0.0,0.0,0.0,0.0,0.0,0.0,0.0,0.0,0.0,0.0,0.0,0.0,0.0,0.0,0.0,0.0,0.0,0.0,0.0,0.0,0.0,0.0,0.0,0.0,0.0,0.0,0.0,0.0,0.0,0.0,0.0,0.0,0.0,0.0,0.0,0.0,0.0,0.0,0.0,0.0,0.0,0.0,0.0,0.0,3.5611,3.7178,3.9356,3.991,4.0113,4.0113,4.0113,3.8814,3.5802,3.56,0.0,0.0,0.0,0.0,0.0,0.0,0.0,0.0,0.0,0.0,0.0,0.0,0.0,0.0,0.0,0.0,0.0,0.0,0.0,0.0,0.0,0.0,0.0,0.0,0.0,0.0,0.0,0.0,0.0,0.0,0.0,0.0,0.0,0.0,0.0,0.0,0.0,0.0,0.0,0.0,0.0,0.0,0.0,0.0,0.0,0.0,0.0,0.0,0.0,0.0,0.0,0.0,0.0,0.0,0.0,0.0,0.0,0.0,0.0,0.0,0.0,0.0,0.0,0.0,0.0,0.0,0.0,0.0,0.0,0.0,0.0,0.0,0.0,0.0,0.0,0.0,0.0,0.0,0.0,0.0,0.0,0.0,0.0,0.0,0.0,0.0,0.0,0.0,0.0,0.0,0.0,0.0,0.0,0.0,0.0,0.0,0.0,0.0,0.0,0.0,0.0,0.0,3.7234,3.8836,3.9977,4.0113,4.0113,4.0113,3.9943,3.8713,3.605,3.5543,0.0,0.0,0.0,0.0,0.0,0.0,0.0,0.0,0.0,0.0,0.0,0.0,0.0,0.0,0.0,0.0,0.0,0.0,0.0,0.0,0.0,0.0,0.0,0.0,0.0,0.0,0.0,0.0,0.0,0.0,0.0,0.0,0.0,0.0,0.0,0.0,0.0,0.0,0.0,0.0,0.0,0.0,0.0,0.0,0.0,0.0,0.0,0.0,0.0,0.0,0.0,0.0,0.0,0.0,0.0,0.0,0.0,0.0,0.0,0.0,0.0,0.0,0.0,0.0,0.0,0.0,0.0,0.0,0.0,0.0,0.0,0.0,0.0,0.0,0.0,0.0,0.0,0.0,0.0,0.0,0.0,0.0,0.0,0.0,0.0,0.0,0.0,0.0,0.0,0.0,0.0,0.0,0.0,0.0,0.0,0.0,0.0,0.0,0.0,0.0,0.0,0.0,3.8125,4.0011,4.0079,4.0113,4.0113,4.0113,3.9457,3.8408,3.6818,3.5362,0.0,0.0,0.0,0.0,0.0,0.0,0.0,0.0,0.0,0.0,0.0,0.0,0.0,0.0,0.0,0.0,0.0,0.0,0.0,0.0,0.0,0.0,0.0,0.0,0.0,0.0,0.0,0.0,0.0,0.0,0.0,0.0,0.0,0.0,0.0,0.0,0.0,0.0,0.0,0.0,0.0,0.0,0.0,0.0,0.0,0.0,0.0,0.0,0.0,0.0,0.0,0.0,0.0,0.0,0.0,0.0,0.0,0.0,0.0,0.0,0.0,0.0,0.0,0.0,0.0,0.0,0.0,0.0,0.0,0.0,0.0,0.0,0.0,0.0,0.0,0.0,0.0,0.0,0.0,0.0,0.0,0.0,0.0,0.0,0.0,0.0,0.0,0.0,0.0,0.0,0.0,0.0,0.0,0.0,0.0,0.0,0.0,0.0,0.0,0.0,0.0,0.0,3.7821,3.9592,0.0,4.0113,4.0113,4.0113,3.9842,3.8848,3.6931,0.0,0.0,0.0,0.0,0.0,0.0,0.0,0.0,0.0,0.0,0.0,0.0,0.0,0.0,0.0,0.0,0.0,0.0,0.0,0.0,0.0,0.0,0.0,0.0,0.0,0.0,0.0,0.0,0.0,0.0,0.0,0.0,0.0,0.0,0.0,0.0,0.0,0.0,0.0,0.0,0.0,0.0,0.0,0.0,0.0,0.0,0.0,0.0,0.0,0.0,0.0,0.0,0.0,0.0,0.0,0.0,0.0,0.0,0.0,0.0,0.0,0.0,0.0,0.0,0.0,0.0,0.0,0.0,0.0,0.0,0.0,0.0,0.0,0.0,0.0,0.0,0.0,0.0,0.0,0.0,0.0,0.0,0.0,0.0,0.0,0.0,0.0,0.0,0.0,0.0,0.0,0.0,0.0,0.0,0.0,0.0,0.0,0.0,0.0,0.0,0.0,0.0,3.5983,3.7956,3.9525,0.0,4.0113,4.0113,4.0113,3.991,3.9017,3.7257,0.0,0.0,0.0,0.0,0.0,0.0,0.0,0.0,0.0,0.0,0.0,0.0,0.0,0.0,0.0,0.0,0.0,0.0,0.0,0.0,0.0,0.0,0.0,0.0,0.0,0.0,0.0,0.0,0.0,0.0,0.0,0.0,0.0,0.0,0.0,0.0,0.0,0.0,0.0,0.0,0.0,0.0,0.0,0.0,0.0,0.0,0.0,0.0,0.0,0.0,0.0,0.0,0.0,0.0,0.0,0.0,0.0,0.0,0.0,0.0,0.0,0.0,0.0,0.0,0.0,0.0,0.0,0.0,0.0,0.0,0.0,0.0,0.0,0.0,0.0,0.0,0.0,0.0,0.0,0.0,0.0,0.0,0.0,0.0,0.0,0.0,0.0,0.0,0.0,0.0,0.0,0.0,0.0,0.0,0.0,0.0,0.0,0.0,0.0,0.0,0.0,0.0,3.6795,3.8725,4.0113,4.0113,4.0113,4.0113,4.0113,3.9423,3.87,0.0,0.0,0.0,0.0,0.0,0.0,0.0,0.0,0.0,0.0,0.0,0.0,0.0,0.0,0.0,0.0,0.0,0.0,0.0,0.0,0.0,0.0,0.0,0.0,0.0,0.0,0.0,0.0,0.0,0.0,0.0,0.0,0.0,0.0,0.0,0.0,0.0,0.0,0.0,0.0,0.0,0.0,0.0,0.0,0.0,0.0,0.0,0.0,0.0,0.0,0.0,0.0,0.0,0.0,0.0,0.0,0.0,0.0,0.0,0.0,0.0,0.0,0.0,0.0,0.0,0.0,0.0,0.0,0.0,0.0,0.0,0.0,0.0,0.0,0.0,0.0,0.0,0.0,0.0,0.0,0.0,0.0,0.0,0.0,0.0,0.0,0.0,0.0,0.0,0.0,0.0,0.0,0.0,0.0,0.0,0.0,0.0,0.0,0.0,0.0,0.0,0.0,0.0,3.6863,3.8725,4.0113,4.0113,4.0113,4.0113,4.0113,3.991,3.9254,3.799,0.0,0.0,0.0,0.0,0.0,0.0,0.0,0.0,0.0,0.0,0.0,0.0,0.0,0.0,0.0,0.0,0.0,0.0,0.0,0.0,0.0,0.0,0.0,0.0,0.0,0.0,0.0,0.0,0.0,0.0,0.0,0.0,0.0,0.0,0.0,0.0,0.0,0.0,0.0,0.0,0.0,0.0,0.0,0.0,0.0,0.0,0.0,0.0,0.0,0.0,0.0,0.0,0.0,0.0,0.0,0.0,0.0,0.0,0.0,0.0,0.0,0.0,0.0,0.0,0.0,0.0,0.0,0.0,0.0,0.0,0.0,0.0,0.0,0.0,0.0,0.0,0.0,0.0,0.0,0.0,0.0,0.0,0.0,0.0,0.0,0.0,0.0,0.0,0.0,0.0,0.0,0.0,0.0,0.0,0.0,0.0,0.0,0.0,0.0,0.0,0.0,0.0,3.7291,3.8916,4.0113,4.0113,4.0113,4.0113,4.0113,4.0113,3.9592,3.8396,0.0,0.0,0.0,0.0,0.0,0.0,0.0,0.0,0.0,0.0,0.0,0.0,0.0,0.0,0.0,0.0,0.0,0.0,0.0,0.0,0.0,0.0,0.0,0.0,0.0,0.0,0.0,0.0,0.0,0.0,0.0,0.0,0.0,0.0,0.0,0.0,0.0,0.0,0.0,0.0,0.0,0.0,0.0,0.0,0.0,0.0,0.0,0.0,0.0,0.0,0.0,0.0,0.0,0.0,0.0,0.0,0.0,0.0,0.0,0.0,0.0,0.0,0.0,0.0,0.0,0.0,0.0,0.0,0.0,0.0,0.0,0.0,0.0,0.0,0.0,0.0,0.0,0.0,0.0,0.0,0.0,0.0,0.0,0.0,0.0,0.0,0.0,0.0,0.0,0.0,0.0,0.0,0.0,0.0,0.0,0.0,0.0,0.0,0.0,0.0,0.0,0.0,3.791,3.9186,4.0113,4.0113,4.0113,4.0113,4.0113,4.0113,3.9795,3.9051,0.0,0.0,0.0,0.0,0.0,0.0,0.0,0.0,0.0,0.0,0.0,0.0,0.0,0.0,0.0,0.0,0.0,0.0,0.0,0.0,0.0,0.0,0.0,0.0,0.0,0.0,0.0,0.0,0.0,0.0,0.0,0.0,0.0,0.0,0.0,0.0,0.0,0.0,0.0,0.0,0.0,0.0,0.0,0.0,0.0,0.0,0.0,0.0,0.0,0.0,0.0,0.0,0.0,0.0,0.0,0.0,0.0,0.0,0.0,0.0,3.8231,0.0,0.0,0.0,0.0,0.0,0.0,0.0,0.0,0.0,0.0,0.0,0.0,0.0,0.0,0.0,0.0,0.0,0.0,0.0,0.0,0.0,0.0,0.0,0.0,0.0,0.0,0.0,0.0,0.0,0.0,0.0,0.0,0.0,0.0,0.0,0.0,0.0,0.0,0.0,0.0,0.0,3.791,3.9186,4.0113,4.0113,4.0113,4.0113,4.0113,4.0113,3.9795,3.9051,0.0,0.0,0.0,0.0,0.0,0.0,0.0,0.0,0.0,0.0,0.0,0.0,0.0,0.0,0.0,0.0,0.0,0.0,0.0,0.0,0.0,0.0,0.0,0.0,0.0,0.0,0.0,0.0,0.0,0.0,0.0,0.0,0.0,0.0,0.0,0.0,0.0,0.0,0.0,0.0,0.0,0.0,0.0,0.0,0.0,0.0,0.0,0.0,0.0,0.0,0.0,0.0,0.0,0.0,0.0,0.0,0.0,0.0,0.0,0.0,0.0,3.9474,0.0,0.0,0.0,0.0,0.0,0.0,0.0,0.0,0.0,0.0,0.0,0.0,0.0,0.0,0.0,0.0,0.0,0.0,0.0,0.0,0.0,0.0,0.0,0.0,0.0,0.0,0.0,0.0,0.0,0.0,0.0,0.0,0.0,0.0,0.0,0.0,0.0,0.0,0.0,0.0,3.8396,3.9423,4.0113,4.0113,4.0113,4.0113,4.0113,4.0113,3.9943,3.9559,3.9186,0.0,0.0,0.0,0.0,0.0,0.0,0.0,0.0,0.0,0.0,0.0,0.0,0.0,0.0,0.0,0.0,0.0,0.0,0.0,0.0,0.0,0.0,0.0,0.0,0.0,0.0,0.0,0.0,0.0,0.0,0.0,0.0,0.0,0.0,0.0,0.0,0.0,0.0,0.0,0.0,0.0,0.0,0.0,0.0,0.0,0.0,0.0,0.0,0.0,0.0,0.0,0.0,0.0,0.0,4.5158,4.591,4.591,4.591,4.5839,4.4331,4.3515,4.3098,0.0,0.0,0.0,0.0,0.0,0.0,0.0,0.0,0.0,0.0,0.0,0.0,0.0,0.0,0.0,0.0,0.0,0.0,0.0,0.0,0.0,0.0,0.0,0.0,0.0,4.3584,4.2902,0.0,0.0,0.0,0.0,0.0,0.0,0.0,0.0,0.0,0.0,0.0,0.0,3.8903,3.9626,4.0113,4.0113,4.0113,4.0113,4.0113,4.0113,4.0113,4.0113,3.9525,3.9186,0.0,0.0,0.0,0.0,0.0,0.0,0.0,0.0,0.0,0.0,0.0,0.0,0.0,0.0,0.0,0.0,0.0,0.0,0.0,0.0,0.0,0.0,0.0,0.0,0.0,0.0,0.0,0.0,0.0,0.0,0.0,0.0,4.0194,4.0993,0.0,0.0,0.0,0.0,0.0,0.0,0.0,0.0,0.0,0.0,0.0,0.0,0.0,0.0,4.5874,4.6938,4.8004,4.9017,5.0268,5.1261,5.2055,5.2055,5.2055,5.1982,5.1078,0.0,4.4065,4.2984,0.0,0.0,0.0,0.0,0.0,0.0,0.0,0.0,0.0,0.0,0.0,0.0,0.0,0.0,0.0,0.0,0.0,0.0,0.0,0.0,0.0,0.0,4.5167,4.5443,4.5525,4.5293,0.0,4.1885,3.9848,4.0204,0.0,0.0,0.0,0.0,0.0,0.0,0.0,0.0,3.8983,3.9626,4.0113,4.0113,4.0113,4.0113,4.0113,4.0113,4.0113,4.0113,4.0011,3.9977,3.9977,3.9356,0.0,0.0,0.0,0.0,0.0,0.0,0.0,0.0,0.0,0.0,0.0,0.0,0.0,0.0,0.0,0.0,0.0,0.0,0.0,0.0,0.0,0.0,0.0,0.0,0.0,0.0,0.0,0.0,0.0,4.0451,4.1552,4.2359,4.2057,4.1654,0.0,0.0,0.0,0.0,0.0,0.0,0.0,0.0,0.0,4.8039,4.7948,4.8569,5.0154,5.0763,5.1726,5.3105,5.3726,5.4693,5.5868,5.5416,5.5233,5.5159,5.3885,5.2049,4.9746,4.6784,4.5325,4.4801,0.0,0.0,0.0,0.0,0.0,4.2821,4.3504,0.0,0.0,0.0,0.0,0.0,0.0,0.0,0.0,0.0,0.0,0.0,0.0,0.0,0.0,4.6965,4.7241,4.7185,4.6947,4.5122,4.323,0.0,4.073,3.9456,3.8978,0.0,0.0,0.0,0.0,0.0,4.0781,4.1149,4.1183,4.0764,4.0709,4.054,4.0146,4.0113,4.0113,4.0113,4.0113,4.0113,4.0113,3.9795,3.9423,0.0,0.0,0.0,0.0,0.0,0.0,0.0,0.0,0.0,0.0,0.0,0.0,0.0,0.0,0.0,0.0,0.0,0.0,0.0,0.0,0.0,0.0,0.0,0.0,0.0,0.0,0.0,0.0,4.1625,4.3057,4.3433,4.3681,4.3599,0.0,0.0,0.0,0.0,0.0,0.0,4.7645,4.7755,4.9187,5.2223,5.2344,5.3004,5.4425,5.4645,5.5343,5.6528,5.6723,5.7446,5.8584,5.7997,5.7618,5.7361,5.615,5.539,5.466,5.0393,4.8317,4.7679,4.6154,4.524,4.4842,4.5373,4.5577,4.5678,4.6328,4.6932,4.7332,4.6507,0.0,4.5761,4.4489,0.0,0.0,0.0,0.0,4.4411,4.5675,0.0,4.6756,4.8522,4.859,4.837,4.86,4.7557,4.6101,0.0,4.2842,4.1566,4.1053,0.0,0.0,0.0,0.0,4.1985,4.2705,4.2779,4.2573,4.2025,4.1826,4.1452,4.0681,4.0485,4.0303,4.0113,4.0113,4.0113,4.0113,4.0113,3.9829,3.9288,0.0,0.0,0.0,0.0,0.0,0.0,0.0,0.0,0.0,0.0,0.0,0.0,0.0,0.0,0.0,0.0,0.0,0.0,0.0,0.0,0.0,0.0,0.0,0.0,0.0,0.0,0.0,0.0,0.0,4.3579,4.6177,0.0,0.0,0.0,0.0,4.6746,4.7599,4.9471,5.2664,5.2847,5.3948,5.6407,5.648,5.6884,5.774,5.8535,5.8939,5.9049,5.9783,6.0187,6.0272,6.0236,5.9783,5.9086,5.8976,5.8095,5.6407,5.313,5.1736,5.1552,4.9871,4.9238,4.9285,4.9321,4.9321,4.9431,5.0248,5.0541,5.0431,4.9644,4.8827,4.8011,4.7166,4.6882,0.0,0.0,4.6828,4.8047,4.8121,4.8764,4.9618,5.0472,4.9471,4.8526,4.9344,4.8384,4.7254,0.0,4.5353,4.3978,4.3824,0.0,4.3729,4.3044,4.3554,4.4063,4.41,4.41,4.41,4.4065,4.3558,4.2907,4.2157,4.1498,4.0832,4.0146,4.0113,4.0113,4.0113,4.0113,4.0079,4.0045,3.9356,0.0,0.0,0.0,0.0,0.0,0.0,0.0,0.0,0.0,0.0,0.0,0.0,0.0,0.0,0.0,0.0,0.0,0.0,0.0,0.0,0.0,0.0,0.0,0.0,0.0,0.0,0.0,0.0,4.8049,4.9224,0.0,0.0,4.9664,4.9921,5.0215,5.194,5.4179,5.6921,5.7068,5.8168,6.0591,6.0664,6.0811,6.1068,6.1361,6.1802,6.2365,6.2059,6.2254,6.2732,6.1667,6.1006,6.0676,5.9636,5.8866,5.8168,5.6003,5.4179,5.2674,5.1536,5.0812,5.0362,5.0362,5.0702,5.1179,5.1463,5.1573,5.1426,5.0618,5.0178,4.9848,4.9581,4.9471,4.9434,4.915,4.9481,4.9921,4.9921,5.0141,5.0435,5.0729,5.0352,4.9848,4.9637,4.9598,4.9407,4.8827,4.6938,4.549,4.5477,4.5365,4.5106,4.4585,4.5057,4.5515,4.5585,4.561,4.5445,4.4947,4.4717,4.4085,4.283,4.2508,4.1847,4.0683,4.0967,4.1013,4.0636,4.0625,4.0625,4.0625,4.0019,3.9254,0.0,0.0,0.0,0.0,0.0,0.0,0.0,0.0,0.0,0.0,0.0,0.0,0.0,0.0,0.0,0.0,0.0,0.0,0.0,0.0,0.0,0.0,0.0,0.0,0.0,0.0,4.9654,5.1059,5.2637,5.3518,5.3235,5.3959,5.4436,5.4436,5.6429,5.8547,6.0737,6.0848,6.1692,6.3563,6.3637,6.3637,6.3637,6.3637,6.393,6.4494,6.393,6.393,6.4457,6.3062,6.2291,6.1924,6.0297,5.9453,5.9086,5.7765,5.6113,5.4315,5.3518,5.2905,5.2417,5.2417,5.2747,5.3198,5.3198,5.3052,5.2674,5.1867,5.1426,5.1169,5.0875,5.0802,5.0802,5.0802,5.0986,5.1206,5.1206,5.1206,5.1279,5.1563,5.1206,5.0729,5.0482,5.0618,5.0655,5.0115,4.8579,4.728,4.7019,4.6593,4.6136,4.5579,4.5838,4.6137,4.6227,4.6459,4.6445,4.5975,4.5955,4.5488,4.4225,4.3674,4.2882,4.1659,4.1747,4.1639,4.1206,4.0758,4.0539,4.0539,3.9754,3.9106,3.8654,0.0,0.0,0.0,0.0,0.0,0.0,0.0,0.0,0.0,0.0,0.0,0.0,0.0,0.0,0.0,0.0,0.0,0.0,0.0,0.0,0.0,0.0,0.0,4.6104,5.0241,5.3067,5.2391,5.6444,5.8425,5.6136,5.8033,5.9416,5.9416,6.0896,6.2524,6.4176,6.4249,6.4604,6.5398,6.5435,6.5435,6.5435,6.5435,6.5435,6.5435,6.5398,6.5362,6.5362,6.453,6.3649,6.2756,6.1141,6.0003,5.9196,5.84,5.7593,5.6774,5.5952,5.5622,5.5585,5.5585,5.5622,5.5658,5.5658,5.5108,5.4289,5.3508,5.2711,5.1877,5.1096,5.0875,5.0875,5.0875,5.1426,5.206,5.206,5.206,5.2234,5.2994,5.2003,5.1096,5.184,5.1389,5.0875,5.0839,5.0225,4.938,4.8526,4.7746,4.6929,4.614,4.603,0.0,4.5993,4.6682,4.7149,4.7113,4.7294,4.7113,4.6349,4.5018,4.3884,4.3101,4.2335,4.1888,4.1878,4.0609,3.9903,3.9891,3.8675,3.8727,4.0159,0.0,0.0,0.0,0.0,0.0,0.0,0.0,0.0,0.0,0.0,0.0,0.0,0.0,0.0,0.0,0.0,0.0,0.0,0.0,0.0,0.0,0.0,5.0325,5.0325,5.3482,5.659,5.8706,6.0639,6.2022,6.2585,6.3233,6.3857,6.4457,6.5448,6.6489,6.7504,6.7577,6.7944,6.8752,6.8788,6.8788,6.8788,6.8788,6.8788,6.8752,6.7577,6.7026,6.7003,6.5595,6.453,6.3686,6.2609,6.1692,6.0896,6.0089,5.9281,5.8389,5.6994,5.6088,5.5585,5.5585,5.5989,5.6455,5.6455,5.5941,5.5144,5.4326,5.3508,5.281,5.259,5.2553,5.2553,5.2553,5.27,5.2847,5.2847,5.2847,5.292,5.3141,5.2847,5.2443,5.2087,5.227,5.237,5.1793,5.151,5.1069,5.0251,4.9911,4.9517,4.8683,0.0,0.0,4.7792,4.8379,4.8453,4.7223,4.7658,4.7507,4.6128,4.6166,4.5757,0.0,4.4123,4.3717,4.3344,4.2977,4.2575,4.2132,4.124,4.0988,0.0,0.0,0.0,0.0,0.0,0.0,0.0,0.0,0.0,0.0,0.0,0.0,0.0,0.0,0.0,0.0,0.0,0.0,0.0,0.0,0.0,0.0,5.1903,5.484,5.7226,5.8877,6.0786,6.3356,6.4677,6.5632,6.6256,6.7197,6.771,6.7504,6.8568,6.9265,6.9412,6.9412,6.9633,7.0073,7.011,7.011,7.011,7.011,7.011,7.0073,6.9169,6.8545,6.8164,6.688,6.5852,0.0,6.3453,6.2536,6.1998,6.086,6.0114,0.0,0.0,0.0,0.0,0.0,5.6895,5.7299,5.7299,5.7005,5.6466,5.5684,5.4876,5.4142,5.3801,5.3691,5.3618,5.3287,5.3434,5.3618,5.3287,5.3214,5.3214,5.3214,5.3214,5.3067,5.2601,5.2847,5.3067,5.2601,0.0,0.0,5.1903,5.0986,4.9994,4.9197,4.9444,4.9397,0.0,4.8746,4.8673,4.7709,4.8003,4.7929,4.6985,4.7012,0.0,0.0,0.0,4.4839,4.3973,4.3943,0.0,0.0,0.0,4.2118,0.0,0.0,0.0,0.0,4.082,4.008,0.0,0.0,0.0,0.0,0.0,0.0,0.0,0.0,0.0,0.0,0.0,0.0,0.0,0.0,0.0,0.0,5.5537,5.9636,6.5068,6.5448,6.5645,6.688,6.8385,6.9045,6.8435,7.022,7.0903,6.9655,7.083,7.127,7.055,0.0,0.0,0.0,0.0,7.0367,7.0367,7.0367,7.0367,7.0367,7.0293,6.9816,6.9009,6.8201,6.737,6.6366,6.415,6.3123,6.2829,6.141,6.0639,6.0309,5.9526,5.8756,5.8107,5.8033,5.7997,0.0,0.0,0.0,0.0,5.7031,5.6271,5.5475,5.473,5.4473,5.4289,5.3654,5.3922,5.4252,5.3618,5.3471,5.3471,5.3471,5.3471,5.3471,5.3471,5.3398,5.3324,5.3324,5.3251,5.3214,5.3214,5.1426,4.9711,4.8857,4.8773,0.0,4.859,4.8663,4.859,4.8333,0.0,0.0,4.8186,4.7599,4.7223,4.7223,4.6461,4.5534,4.438,4.4261,4.3694,4.2604,4.2593,4.2973,4.3733,4.3707,4.4408,4.5655,4.2799,4.1573,0.0,0.0,0.0,0.0,0.0,0.0,0.0,0.0,0.0,0.0,0.0,0.0,0.0,0.0,0.0,5.6381,6.0676,6.4958,6.8641,7.0697,7.1468,7.0499,7.1197,7.2018,7.251,7.2386,7.2665,7.3656,7.3413,7.3156,7.3024,7.301,0.0,7.2055,7.2055,7.2055,7.2055,7.2055,7.2055,7.2018,0.0,0.0,6.9853,6.9045,6.7871,6.6476,6.5999,6.5044,6.3796,6.3503,6.2218,6.0309,5.9526,5.9086,5.8902,5.8253,5.7997,5.7997,5.7997,5.7593,5.6994,5.6847,5.6271,5.5585,5.5438,5.4913,0.0,5.4997,5.4766,5.4509,5.4997,5.5144,5.5144,5.5144,5.5144,5.5144,5.5144,5.462,5.4179,5.4179,5.3654,5.3214,5.3214,5.281,5.2234,5.1389,5.183,5.1783,5.0462,5.0875,5.0508,4.8517,4.894,4.8783,4.7452,4.7783,4.8076,4.8076,4.7305,4.6754,4.6523,4.5874,4.5727,4.6107,4.6107,4.6185,4.6359,4.6997,4.7202,4.6975,4.5288,4.4551,0.0,0.0,0.0,0.0,0.0,0.0,0.0,0.0,0.0,0.0,0.0,5.1389,0.0,0.0,5.8327,6.119,6.4701,6.8371,7.1982,7.356,7.4001,7.3215,7.3472,7.3854,7.4258,7.4294,7.4478,7.4867,7.4918,7.4551,7.3744,7.3722,7.334,7.2532,7.2496,7.2496,7.2496,7.2496,7.2496,7.2496,7.2092,7.1284,7.0073,6.9669,6.8605,6.7063,6.6256,6.5448,6.464,6.3796,6.2732,6.1508,6.0701,5.9648,5.8535,5.8143,5.7997,5.7997,5.7997,5.774,5.7409,5.7409,5.6859,5.6198,5.6198,5.5904,5.5611,5.5585,5.5611,5.5611,5.5585,5.5585,5.5585,5.5585,5.5585,5.5475,5.5108,5.4997,5.4876,5.4473,5.4069,5.3801,5.3801,5.3471,5.3067,5.2674,5.292,5.292,5.2113,5.2013,5.1546,5.0288,5.0178,4.9711,4.8453,4.8306,4.8296,4.8296,4.7929,4.7709,4.7709,4.7305,4.7269,4.7709,4.7709,4.7548,4.7246,4.7951,4.7995,4.7396,4.6973,4.6494,0.0,0.0,0.0,0.0,0.0,0.0,0.0,0.0,5.0178,5.1867,5.3728,5.5416,5.6576,5.9648,6.2976,6.5778,6.8371,7.1233,7.4647,7.527,7.538,7.538,7.538,7.538,7.538,7.5799,7.5909,7.5417,7.5674,7.5285,7.4001,7.378,7.334,7.2532,7.2496,7.2496,7.2496,7.2496,7.2422,7.2275,7.2275,7.1431,6.9853,6.9853,6.8972,6.737,6.5778,6.5081,6.4958,6.3417,6.2719,6.2499,6.1667,6.0089,5.8217,5.8217,5.8143,5.7997,5.7997,5.7997,5.7997,5.7997,5.7556,5.7031,5.7031,5.6921,5.6712,5.6198,5.6418,5.6712,5.6209,5.6062,5.6062,5.6062,5.6062,5.5879,5.5244,5.55,5.5658,5.4987,5.473,5.462,5.462,5.3959,5.3398,5.3214,5.3214,5.3214,5.3214,5.2637,5.2171,5.2024,5.1426,5.0618,4.9684,4.8976,4.8489,4.8296,4.8296,4.8296,4.8296,4.8296,4.8296,4.8296,4.8296,4.8065,4.7591,4.8211,4.8238,4.7601,4.8111,4.771,4.625,4.5369,4.5287,4.6636,4.7489,4.9003,0.0,0.0,5.5254,5.6859,5.96,6.1545,6.1043,6.4787,6.8311,6.9376,7.2202,7.4647,7.5799,7.6592,7.7032,7.7032,7.7032,7.7032,7.7032,7.6481,7.635,7.6995,7.5784,7.494,7.4793,7.4074,7.334,7.2532,7.2496,7.2496,7.2496,7.2496,7.2151,7.1417,7.1417,7.0573,6.9045,6.9045,6.8164,6.6549,6.4947,6.4237,6.4176,6.3196,6.2401,6.163,6.086,5.993,5.9086,5.9086,5.8609,5.7997,5.7997,5.7997,5.7997,5.7997,5.7923,5.7886,5.7886,5.7373,5.6921,5.7556,5.7262,5.6921,5.7556,5.774,5.774,5.774,5.774,5.7703,5.7629,5.7116,5.6627,5.6554,5.5941,5.5475,5.5475,5.4803,5.4032,5.3324,5.3214,5.3214,5.3214,5.3104,5.2784,5.2097,5.1914,5.1253,4.9721,4.95,4.9123,4.8333,4.8296,4.8296,4.8296,4.8296,4.8296,4.8296,4.8296,4.8277,4.8219,4.9057,4.9021,4.8209,4.8442,4.8103,4.8352,4.7765,4.8012,0.0,5.161,5.3482,5.7079,5.851,5.9685,6.1814,6.4053,6.5852,6.6439,6.8972,7.1431,0.0,7.4441,7.5873,7.6702,7.6665,7.6261,7.5322,7.5212,7.5747,7.7179,7.6555,7.624,7.6592,7.5968,7.5212,7.4258,7.4331,7.3817,7.2532,7.2936,7.2973,7.2496,7.2496,7.2078,7.1307,7.1307,7.0463,6.8885,6.8885,6.7747,6.5778,6.5081,6.4237,6.3319,6.2939,6.2609,6.2254,6.1912,6.1288,6.0419,5.9013,5.829,5.7997,5.7997,5.7997,5.7997,5.7997,5.7997,5.7997,5.7997,5.7776,5.7556,5.7923,5.7776,5.7593,5.7923,5.7997,5.7997,5.7997,5.7997,5.7886,5.7409,5.7409,5.7373,5.6884,5.6528,5.6308,5.6308,5.5611,5.484,5.4032,5.3508,5.3214,5.3214,5.3214,5.3067,5.2737,5.227,5.173,5.1032,5.0161,4.9454,4.9087,4.86,4.8296,4.8296,4.8296,4.8296,4.8296,4.8296,4.8296,4.8296,4.8673,4.8673,4.8296,4.84,4.8263,4.9344,4.9711,0.0,5.3508,5.6088,5.8669,6.1447,6.2879,6.4237,6.6499,6.7871,6.9119,7.0513,7.2092,7.3546,7.472,7.5747,7.6555,7.6922,7.6093,7.4918,7.3523,7.2789,7.323,7.5417,7.5542,7.5542,7.5763,7.5542,7.5028,7.4074,7.4147,7.3802,7.2863,7.3193,7.3083,7.2496,7.2496,7.1982,7.0977,7.0977,7.0132,6.8568,6.8348,6.716,6.5288,6.5288,6.4334,6.2829,6.305,6.3013,6.2756,6.2316,6.1777,6.1006,5.8804,5.8143,5.829,5.807,5.7997,5.7997,5.7997,5.7997,5.7997,5.7997,5.7997,5.7997,5.7997,5.7997,5.7997,5.7997,5.7997,5.7997,5.7997,5.7997,5.785,5.7262,5.7593,5.7813,5.7262,5.7152,5.7152,5.7152,5.6455,5.5721,5.517,5.4179,5.3434,5.3214,5.3214,5.3214,5.3214,5.2674,5.2234,5.2024,5.0739,4.9821,4.961,4.8783,4.8296,4.8296,4.8296,4.8296,4.8296,4.8296,4.8296,4.8296,4.8526,4.8526,4.8296,4.8563,4.8526,4.8113,5.0105,5.2685,5.5893,6.0309,6.4286,6.5925,6.754,6.9142,7.0793,7.116,7.1454,7.2275,7.3729,7.483,7.4903,7.6225,7.6995,7.624,7.4771,7.345,7.2642,7.0477,6.9692,0.0,7.2863,7.4111,7.4867,7.4221,7.4074,7.483,7.3413,7.2899,7.3648,7.2936,7.2532,7.2496,7.2496,7.1688,7.0146,7.0146,6.9265,6.77,6.6916,6.6109,6.5288,6.5288,6.4334,6.2866,6.3723,6.3576,6.2646,6.1068,6.0456,6.0236,5.8584,5.8499,5.9049,5.8253,5.7997,5.7997,5.7997,5.7997,5.7997,5.7997,5.7997,5.7997,5.7997,5.7997,5.7997,5.7997,5.7997,5.7997,5.7997,5.7997,5.7997,5.796,5.796,5.7997,5.796,5.796,5.796,5.796,5.7299,5.6737,5.6737,5.539,5.4069,5.3287,5.3214,5.3214,5.3214,5.3177,5.2858,5.206,5.1242,5.0435,4.9647,4.8783,4.8296,4.8296,4.8296,4.8296,4.8296,4.8296,4.8296,4.8296,4.916,4.9123,4.8333,4.916,4.9123,5.2578,5.5169,5.8243,6.2255,6.5264,6.8078,7.1161,7.2303,7.2674,7.2674,7.1438,7.0098,6.9448,6.9579,7.0507,7.2735,7.477,7.6555,7.7978,7.6891,7.4863,7.1847,7.0438,0.0,0.0,0.0,0.0,7.323,7.3046,7.301,7.3289,7.3303,7.3193,7.2899,7.3156,7.3046,7.2496,7.2496,7.1982,7.0866,6.9816,6.8752,6.7664,6.688,6.6072,6.5251,6.4751,6.387,6.2829,6.3123,6.305,6.2683,6.163,6.119,6.1006,5.938,5.8976,5.9086,5.829,5.7997,5.7997,5.7997,5.7997,5.7997,5.7997,5.7997,5.7997,5.7997,5.7997,5.7997,5.7997,5.7997,5.7997,5.7997,5.7997,5.7997,5.7997,5.7997,5.7997,5.7997,5.7997,5.7997,5.7997,5.7776,5.7409,5.6884,5.5427,5.4106,5.3287,5.3214,5.3214,5.3214,5.3214,5.3104,5.2821,5.205,5.1242,5.0435,4.9637,4.8893,4.8333,4.8296,4.8296,4.8296,4.8296,4.8296,4.8296,4.86,4.86,4.8296,4.86,4.86,5.6962,6.0377,6.3934,6.7919,7.0536,7.2781,7.5259,7.557,7.4958,7.3512,7.1277,6.9019,6.7172,6.6407,6.6979,6.9737,7.1321,7.3322,7.6512,7.5399,7.3636,7.1932,7.0646,6.9395,0.0,0.0,0.0,7.255,7.2459,7.2704,7.3527,7.3383,7.3249,7.3245,7.3264,7.301,7.2496,7.2496,7.1931,7.0866,6.9509,6.8348,6.726,6.6733,6.5888,6.4861,6.464,6.387,6.2829,6.3135,6.3086,6.2719,6.1924,6.141,6.1006,5.9673,5.9013,5.8682,5.818,5.7997,5.7997,5.7997,5.7997,5.7997,5.7997,5.7997,5.7997,5.7997,5.7997,5.7997,5.7997,5.7997,5.7997,5.7997,5.7997,5.7997,5.7997,5.7997,5.7997,5.7997,5.7997,5.7997,5.7997,5.7997,5.774,5.6921,5.5684,5.4546,5.3728,5.3398,5.3214,5.3214,5.3214,5.3214,5.3214,5.2454,5.1646,5.0839,5.0041,4.9197,4.8333,4.8296,4.8296,4.8296,4.8296,4.8296,4.8296,4.8296,4.8296,4.8296,4.8296,4.8296,6.1162,6.5537,6.9417,7.2638,7.5739,7.8025,7.8059,7.7281,7.5851,7.3274,7.0625,6.7957,0.0,0.0,6.4449,6.6219,6.6671,6.8292,7.266,7.1151,7.0503,0.0,0.0,0.0,0.0,0.0,0.0,7.2912,0.0,7.3089,7.5305,7.3619,7.319,7.4559,7.3305,7.261,7.261,7.261,7.1765,7.0197,6.9412,6.8198,6.6581,6.6544,6.5662,6.424,6.4926,6.435,6.2916,6.3774,6.3602,6.2732,6.1961,6.1201,6.0394,5.9609,5.8823,5.8136,5.8136,5.8091,5.7997,5.7997,5.7997,5.7997,5.7997,5.7997,5.7997,5.7997,5.7997,5.7997,5.7997,5.7997,5.7997,5.7997,5.7997,5.7997,5.7997,5.7997,5.7997,5.7997,5.7997,5.7997,5.7997,5.7997,5.774,5.6957,5.6124,5.5328,5.4509,5.3691,5.3214,5.3214,5.3214,5.3214,5.3214,5.2491,5.1693,5.0839,5.0078,4.9233,4.8333,4.8296,4.8296,4.8296,4.8296,4.8296,4.8296,4.8296,4.8296,4.8296,4.8296,4.8296,6.7079,7.0896,7.3916,7.6193,7.7394,7.8126,7.858,7.6511,7.383,7.133,6.6366,6.1766,0.0,0.0,0.0,6.4984,6.8476,0.0,7.7335,7.6539,0.0,7.4723,0.0,7.2483,7.1013,7.1468,0.0,0.0,7.2772,7.266,7.4509,7.4116,7.4012,7.4361,7.4024,7.3829,7.3829,7.3829,7.3016,7.1366,7.1141,6.9855,6.7594,6.6994,6.617,6.5185,6.4783,6.4177,6.3419,6.4064,6.3729,6.2782,6.2758,6.2394,6.184,6.1384,6.0707,5.9994,5.9994,5.9132,5.7997,5.7997,5.7997,5.7997,5.7997,5.7997,5.7997,5.7997,5.7997,5.7997,5.7997,5.7997,5.7997,5.7997,5.7997,5.7997,5.7997,5.7997,5.7997,5.7997,5.7997,5.7997,5.7997,5.7997,5.7923,5.7703,5.6503,5.5328,5.4509,5.3691,5.3214,5.3214,5.3214,5.3214,5.3214,5.2994,5.2297,5.0875,5.0618,4.9848,4.837,4.8296,4.8296,4.8296,4.8296,4.8296,4.8296,4.8296,4.8296,4.8296,4.8296,4.8296,7.227,7.5327,7.7526,7.8971,7.9056,7.8504,7.7317,7.4987,7.1733,6.6994,6.2766,5.9069,5.6314,5.6707,0.0,0.0,0.0,0.0,7.5707,7.607,7.6007,0.0,7.6056,0.0,7.4117,7.4095,7.4451,0.0,7.3706,7.3402,7.4951,7.4568,7.4411,7.4622,7.4432,7.4293,7.4293,7.3905,7.3075,7.1813,7.1426,6.9906,6.7454,6.7011,6.6171,6.5039,0.0,6.4217,6.3958,6.4265,6.4039,6.3512,6.3632,6.304,6.2216,6.2372,6.1454,6.017,6.0556,5.9778,5.8611,5.8611,5.8611,5.8611,5.8611,5.8611,5.8611,5.8611,5.8611,5.8611,5.8611,5.8611,5.8611,5.8611,5.8471,5.8315,5.8315,5.8153,5.7997,5.7997,5.7997,5.7997,5.7997,5.7997,5.7997,5.7997,5.665,5.5438,5.4997,5.3922,5.3214,5.3214,5.3214,5.3214,5.3214,5.3214,5.2664,5.1426,5.0986,5.0215,4.893,4.8489,4.8296,4.8296,4.8296,4.8296,4.8296,4.8296,4.8296,4.8296,4.8296,4.8296,7.6515,7.8784,8.0169,8.09,8.0285,7.8592,7.5277,7.2706,6.9058,6.205,5.9473,5.7665,5.4972,5.517,5.694,6.071,0.0,6.5897,7.1867,7.336,7.4976,7.8138,7.7984,7.7592,7.7484,7.6861,7.6399,7.6207,7.5028,7.4826,7.5923,7.5055,7.474,7.518,7.4769,7.4516,7.4516,7.3663,7.2841,7.2029,7.1138,6.9435,6.7023,6.7023,6.6124,6.4619,0.0,0.0,6.449,6.4554,6.45,6.4398,6.4565,6.3666,6.2402,6.3201,6.1969,6.0038,6.0775,6.0387,5.9551,5.9432,5.9389,5.9389,5.9389,5.9389,5.9389,5.9389,5.9389,5.9389,5.9389,5.9389,5.9389,5.9389,5.9075,5.8786,5.8786,5.8482,5.8198,5.8198,5.8198,5.8175,5.8097,5.8085,5.8063,5.8008,5.6723,5.5732,5.5622,5.4216,5.3214,5.3214,5.3214,5.3214,5.3214,5.3214,5.2847,5.206,5.1353,5.0545,4.9647,4.8857,4.8406,4.8296,4.8296,4.8296,4.8296,4.8296,4.8296,4.8296,4.8296,4.8296,7.8592,8.0092,8.09,8.1054,7.94,7.7015,7.4315,6.9122,0.0,0.0,5.6275,5.3467,5.4357,5.517,5.7517,6.3051,6.5359,6.8513,7.4514,7.5476,7.6284,0.0,0.0,0.0,0.0,0.0,0.0,0.0,0.0,0.0,7.6015,7.5803,7.5764,7.5833,7.5764,7.5724,7.5724,7.4842,7.399,7.3193,7.231,7.0584,6.8122,6.8122,6.7208,6.5642,0.0,0.0,6.5019,6.5477,6.5145,6.4463,6.5321,6.5182,6.4624,6.5185,6.4223,6.2643,6.2803,6.1844,6.0443,5.9633,5.9389,5.9389,5.9389,5.9389,5.9389,5.9389,5.9389,5.9389,5.9389,5.9389,5.9389,5.9389,5.9328,5.9275,5.9275,5.9203,5.9148,5.9148,5.9148,5.9009,5.8652,5.857,5.845,5.8077,5.7189,5.6345,5.5695,5.4216,5.3214,5.3214,5.3214,5.3214,5.3214,5.3214,5.2847,5.206,5.1877,5.1143,4.9647,4.9454,4.905,4.8296,4.8296,4.8296,4.8296,4.8296,4.8296,4.8296,4.8296,4.8296,7.9246,8.0439,8.0977,8.0554,7.8169,7.4822,7.0514,0.0,0.0,5.6429,5.3621,5.2159,5.3005,5.4203,0.0,6.0627,6.3095,6.6404,7.1937,7.386,0.0,7.8215,0.0,0.0,0.0,0.0,0.0,0.0,0.0,0.0,7.6092,7.6015,7.6015,7.6015,7.6015,7.6015,7.6015,7.47,7.3892,7.3469,7.2168,7.0437,6.8391,6.8391,6.7468,6.5904,6.5904,0.0,6.5542,6.5795,6.5629,6.5245,6.5697,6.5454,6.4935,6.5647,6.4519,6.2743,6.316,6.2204,6.0734,6.029,6.0132,6.0132,6.0132,6.0132,6.0132,6.0132,6.0132,6.0132,6.0132,6.0132,6.0132,6.0132,5.9931,5.9712,5.945,5.9389,5.9389,5.9389,5.9389,5.9319,5.9084,5.9047,5.8999,5.8746,5.7478,5.6403,5.6006,5.4333,5.3214,5.3214,5.3214,5.3214,5.3214,5.3214,5.3031,5.2637,5.2234,5.1473,5.0261,4.9821,4.9197,4.8333,4.8296,4.8296,4.8296,4.8296,4.8296,4.8296,4.8296,4.8296,7.9361,8.0439,8.09,8.0015,7.6976,7.2706,6.7167,6.2826,0.0,5.3005,5.1774,5.1736,5.212,5.3159,5.4895,0.0,5.9973,6.3134,6.8398,7.1353,7.4207,0.0,7.8292,0.0,0.0,0.0,0.0,0.0,0.0,0.0,7.6399,7.6092,7.6015,7.6015,7.6015,7.5899,7.5707,7.4238,7.3392,7.3199,7.1475,6.986,6.8391,6.8199,6.7321,6.5904,6.5904,0.0,0.0,6.5904,6.5904,6.5904,6.5904,6.5474,6.4974,6.5628,6.4519,6.271,6.316,6.232,6.1056,6.0864,6.0787,6.0787,6.0787,6.0787,6.0787,6.0787,6.0787,6.0787,6.0787,6.0787,6.0787,6.0787,6.0508,6.0146,5.9792,5.972,5.972,5.972,5.972,5.965,5.9559,5.9543,5.9509,5.9407,5.8004,5.6902,5.6715,5.527,5.4139,5.377,5.3397,5.3214,5.3214,5.3214,5.3214,5.3214,5.2601,5.183,5.0839,5.0188,4.938,4.8333,4.8296,4.8296,4.8296,4.8296,4.8296,4.8296,4.8296,4.8296,7.9361,8.0439,8.09,8.0015,7.6092,7.129,6.6898,0.0,5.6324,5.2659,5.1318,5.1284,5.2813,5.2544,5.3505,5.7621,5.8511,6.0666,6.6519,6.9513,7.2399,7.5822,0.0,0.0,0.0,0.0,0.0,0.0,0.0,0.0,0.0,7.6438,7.6015,7.6015,7.6015,7.563,7.4815,7.393,7.3091,7.229,7.0591,6.9321,6.8353,6.759,6.675,6.5904,0.0,0.0,0.0,6.5904,6.5904,6.5904,6.5904,6.5865,6.5788,6.5859,6.5243,6.4282,6.3545,6.2704,6.1864,6.1056,6.0787,6.0787,6.0787,6.0787,6.0787,6.0787,6.0787,6.0787,6.0787,6.0787,6.0787,6.0787,6.0763,6.0734,6.0665,6.0659,6.0659,6.0659,6.0659,6.0527,6.0118,6.0052,5.9893,5.9458,5.925,5.8847,5.811,5.7849,5.7145,5.5639,5.4117,5.3214,5.3214,5.3214,5.3214,5.3214,5.3141,5.2407,5.0875,5.0729,4.9958,4.8333,4.8296,4.8296,4.8296,4.8296,4.8296,4.8296,4.8296,4.8296,7.6015,7.8861,8.0631,7.8746,7.4822,7.0059,6.4826,0.0,5.5247,5.1856,5.0938,5.0899,5.1553,5.1395,5.1895,5.4082,5.489,5.7126,6.2557,6.5051,6.8353,7.386,0.0,0.0,0.0,0.0,0.0,0.0,0.0,0.0,0.0,7.6476,7.5745,7.5245,7.5207,7.4815,7.4007,7.3129,7.2552,7.2175,7.0514,6.9237,6.8353,6.7513,6.6673,6.5904,0.0,0.0,0.0,6.5904,6.5904,6.5904,6.5904,6.5904,6.5904,6.5904,6.5359,6.4474,6.3583,6.2781,6.1941,6.1095,6.0787,6.0787,6.0787,6.0787,6.0787,6.0787,6.0787,6.0787,6.0787,6.0787,6.0787,6.0787,6.0787,6.0787,6.0787,6.0787,6.0787,6.0787,6.0787,6.0746,6.0533,6.0514,6.0469,6.0283,5.958,5.8973,5.8677,5.7935,5.7016,5.5837,5.4875,5.4141,5.3593,5.3328,5.3214,5.3214,5.3214,5.248,5.0875,5.0802,5.0021,4.8333,4.8296,4.8296,4.8296,4.8296,4.8296,4.8296,4.8296,4.8296,7.2591,7.6515,7.9169,7.7361,7.3514,6.8744,0.0,0.0,5.4477,5.1323,5.0707,5.0707,5.0707,5.0707,5.0899,5.1467,5.2467,5.4741,5.9088,6.155,6.4936,0.0,0.0,0.0,0.0,0.0,0.0,0.0,0.0,0.0,0.0,7.6092,7.5322,7.47,7.4469,7.393,7.3129,7.2514,7.2059,7.179,7.0129,6.9007,6.8353,6.7244,6.6442,6.5904,0.0,0.0,0.0,6.5904,6.5904,6.5904,6.5904,6.5904,6.5904,6.5904,6.5359,6.4474,6.3583,6.2781,6.1941,6.1095,6.0787,6.0787,6.0787,6.0787,6.0787,6.0787,6.0787,6.0787,6.0787,6.0787,6.0787,6.0787,6.0787,6.0787,6.0787,6.0787,6.0787,6.0787,6.0787,6.0787,6.0787,6.0787,6.0787,6.0787,6.0028,5.9451,5.9451,5.8671,5.7779,5.6928,5.6215,5.5298,5.3926,5.3526,5.3318,5.3225,5.3214,5.248,5.0875,5.0802,5.0021,4.8333,4.8296,4.8296,4.8296,4.8296,4.8296,4.8296,4.8296,4.8296,6.9783,7.3437,7.6053,7.6015,7.2199,6.7314,6.3057,5.8171,5.3785,5.1246,5.0707,5.0707,5.0707,5.0707,5.0707,5.0707,5.2125,5.4082,5.6698,5.9973,0.0,0.0,0.0,0.0,0.0,0.0,0.0,0.0,0.0,0.0,0.0,7.5207,7.47,7.47,7.393,7.3084,7.2213,7.2213,7.179,7.0898,6.9199,6.8391,6.8353,6.6667,6.5904,0.0,0.0,0.0,0.0,6.5904,6.5904,6.5904,6.5904,6.5904,6.5904,6.5904,6.5359,6.4474,6.3583,6.2781,6.1941,6.1095,6.0787,6.0787,6.0787,6.0787,6.0787,6.0787,6.0787,6.0787,6.0787,6.0787,6.0787,6.0787,6.0787,6.0787,6.0787,6.0787,6.0787,6.0787,6.0787,6.0787,6.0787,6.0787,6.0787,6.0787,6.0781,6.0781,6.0781,6.0775,6.0429,5.9538,5.8336,5.6558,5.4018,5.3814,5.3633,5.3209,5.3214,5.248,5.0875,5.0802,5.0021,4.8333,4.8296,4.8296,4.8296,4.8296,4.8296,4.8296,4.8296,4.8296,6.1435,6.5628,6.8674,6.6942,6.482,6.2243,5.8555,5.5588,5.3049,5.1092,5.0707,5.0707,5.0707,5.0707,5.0899,5.1428,5.2467,5.389,0.0,0.0,0.0,0.0,0.0,0.0,0.0,0.0,0.0,0.0,0.0,0.0,0.0,0.0,7.363,7.3014,7.2745,7.2206,7.1321,7.1321,7.1168,7.0898,6.9199,6.8391,6.8353,6.6667,0.0,0.0,0.0,0.0,0.0,6.5904,6.5904,6.5904,6.5904,6.5904,6.5904,6.5904,6.5359,6.4551,6.4282,6.3281,6.2056,6.1787,6.1287,6.0787,6.0787,6.0787,6.0787,6.0787,6.0787,6.0787,6.0787,6.0787,6.0787,6.0787,6.0787,6.0787,6.0787,6.0787,6.0787,6.0787,6.0787,6.0787,6.0787,6.0787,6.0787,6.0787,6.0787,6.0787,6.0787,6.0787,6.0473,5.9588,5.8655,5.7392,5.5723,5.48,5.4213,5.4103,5.4094,5.3346,5.1707,5.1632,5.0703,4.8746,4.87,4.8577,4.8296,4.8296,4.8296,4.8296,4.8296,4.8296,5.5828,6.0127,6.3166,6.1903,6.0748,0.0,5.6324,5.4164,5.2313,5.0976,5.0744,5.0769,5.0769,5.0837,5.1126,5.1934,5.2785,5.3829,0.0,0.0,0.0,0.0,0.0,0.0,0.0,0.0,0.0,0.0,0.0,0.0,0.0,0.0,7.2937,7.1752,7.1713,7.1437,7.0898,7.0898,7.0898,7.0898,6.9545,6.8737,6.8353,6.6974,0.0,0.0,0.0,0.0,0.0,6.5904,6.5904,6.5904,6.5904,6.5705,6.5397,6.5397,6.4666,6.3666,6.3666,6.2749,6.1595,6.1595,6.1248,6.0787,6.0787,6.0787,6.0787,6.0787,6.0787,6.0787,6.0787,6.0787,6.0787,6.0787,6.0787,6.0787,6.0787,6.0787,6.0787,6.0787,6.0787,6.0787,6.0787,6.0787,6.0787,6.0787,6.0787,6.0787,6.0787,6.0787,6.0589,6.005,5.8973,5.7976,5.7168,5.5639,5.4655,5.4492,5.4484,5.3888,5.2492,5.2152,5.1246,4.9634,4.9281,4.8986,4.8735,4.8735,4.8735,4.8735,4.8735,4.8684,0.0,5.6241,5.8886,5.9639,5.8743,5.7231,5.5558,5.3445,0.0,5.0798,5.0777,5.0949,5.0988,5.1041,5.1405,5.2344,5.312,0.0,0.0,0.0,0.0,0.0,0.0,0.0,0.0,0.0,0.0,0.0,0.0,0.0,0.0,0.0,7.2691,7.1054,7.0939,7.0887,7.0821,7.086,7.086,7.0783,6.9975,6.9161,6.8353,6.7436,0.0,0.0,0.0,0.0,0.0,6.5904,6.5904,6.5897,6.582,6.532,6.4589,6.4551,6.3474,6.2095,6.2172,6.1595,6.0787,6.0787,6.0787,6.0787,6.0787,6.0787,6.0787,6.0787,6.0787,6.0787,6.0787,6.0787,6.0787,6.0787,6.0787,6.0787,6.0787,6.0787,6.0787,6.0787,6.0787,6.0787,6.0787,6.0787,6.0787,6.0787,6.0787,6.0787,6.0787,6.0787,6.0787,6.0787,5.9319,5.8313,5.8313,5.6364,5.4967,5.4602,5.4579,5.4201,5.3339,5.2583,5.1736,5.0853,4.9978,4.9496,4.9496,4.9496,4.9496,4.9496,4.9496,4.9303,4.7542,0.0,5.0863,5.0503,5.1023,5.1386,0.0,5.0778,5.1062,5.0201,5.0586,5.1239,5.1867,5.1502,5.1794,5.3942,0.0,0.0,0.0,0.0,0.0,0.0,0.0,0.0,0.0,0.0,0.0,0.0,0.0,0.0,0.0,0.0,7.2643,7.2131,7.1468,7.0774,6.9975,7.0591,7.0591,6.9975,6.9122,6.8584,6.8353,6.6859,0.0,0.0,0.0,0.0,6.5904,6.5904,6.5904,6.582,6.5166,6.4782,6.4512,6.3852,6.2974,6.2172,6.282,6.205,6.0787,6.0787,6.0787,6.0787,6.0787,6.0787,6.0787,6.0787,6.0787,6.0787,6.0787,6.0787,6.0787,6.0787,6.0787,6.0787,6.0787,6.0787,6.0787,6.0787,6.0787,6.0787,6.0787,6.0787,6.0787,6.0787,6.0787,6.0787,6.0787,6.0787,6.0787,6.0787,5.9319,5.8313,5.8313,5.6604,5.5531,5.5423,5.5417,5.5034,5.4229,5.3999,5.305,5.1237,5.0069,4.9496,4.9496,4.9496,4.9496,4.9496,4.9496,4.9445,4.6082,4.7194,4.8311,4.7884,4.8738,4.9589,4.9194,4.9523,4.9875,4.9798,5.0237,5.0821,5.1643,5.1481,5.1934,0.0,5.4432,0.0,0.0,0.0,0.0,0.0,0.0,0.0,0.0,0.0,0.0,0.0,0.0,0.0,0.0,0.0,7.2318,7.146,7.1387,7.0984,7.0251,7.0321,7.0129,6.9706,6.8814,6.8199,6.7782,6.6865,0.0,0.0,0.0,0.0,6.5904,6.5904,6.5667,6.5243,6.4782,6.4128,6.3403,6.2935,6.221,6.1556,6.2012,6.155,6.0787,6.0787,6.0787,6.0787,6.0787,6.0787,6.0787,6.0787,6.0787,6.0787,6.0787,6.0787,6.0787,6.0787,6.0787,6.0787,6.0787,6.0787,6.0787,6.0787,6.0787,6.0787,6.0787,6.0787,6.0787,6.0787,6.0787,6.0787,6.0787,6.0787,6.0787,6.0787,5.9319,5.8313,5.8313,5.6703,5.5708,5.5708,5.5708,5.5324,5.4511,5.4511,5.3596,5.1595,5.0585,5.0037,5.0037,5.0037,5.0037,5.0037,5.0037,4.9949,4.6445,4.7507,4.8503,4.8228,4.8911,4.9599,4.9497,4.911,4.8954,4.9698,5.004,5.0512,5.1451,5.1712,0.0,0.0,0.0,0.0,0.0,0.0,0.0,0.0,0.0,0.0,0.0,0.0,0.0,0.0,0.0,0.0,0.0,0.0,0.0,7.0308,7.0973,7.1111,7.0587,7.0047,6.9623,6.9353,6.8621,6.7888,6.7168,6.7036,0.0,0.0,0.0,0.0,6.5904,6.5904,6.5474,6.4782,6.4512,6.3512,6.2249,6.1979,6.1441,6.0787,6.0787,6.0816,6.0817,6.0817,6.0845,6.0883,6.0883,6.0883,6.0883,6.0883,6.0855,6.0787,6.0787,6.0787,6.0787,6.0787,6.0787,6.0787,6.0787,6.0787,6.0787,6.0787,6.0787,6.0787,6.0787,6.0787,6.0787,6.0787,6.0787,6.0787,6.0787,6.0787,6.0787,6.0787,5.9396,5.8429,5.8313,5.6819,5.5824,5.5708,5.5708,5.5324,5.4511,5.4357,5.3549,5.1923,5.1125,5.0707,5.0707,5.0707,5.0707,5.0707,5.0707,5.0509,4.7187,4.8085,4.8472,4.7027,4.7749,4.8706,4.8077,4.8979,4.9995,5.0112,5.0701,5.1678,5.328,5.3593,5.4414,0.0,0.0,0.0,0.0,0.0,0.0,0.0,0.0,0.0,0.0,0.0,0.0,0.0,0.0,0.0,0.0,0.0,0.0,7.0497,7.0573,7.0191,6.9232,6.9823,6.936,6.7926,6.781,6.7654,6.7495,6.665,6.6205,0.0,0.0,6.5904,6.5904,6.5904,6.582,6.5551,6.4083,6.3352,6.2929,6.1512,6.0902,6.0787,6.0787,6.0871,6.0986,6.0986,6.1073,6.121,6.121,6.121,6.121,6.121,6.103,6.0787,6.0787,6.0787,6.0787,6.0787,6.0787,6.0787,6.0787,6.0787,6.0787,6.0787,6.0787,6.0787,6.0787,6.0787,6.0787,6.0787,6.0787,6.0787,6.0787,6.0787,6.0787,6.0787,5.9896,5.905,5.8352,5.7401,5.6478,5.5747,5.5708,5.5324,5.4511,5.378,5.2928,5.1923,5.1125,5.0707,5.0707,5.0707,5.0707,5.0707,5.0707,5.0687,4.6797,4.7539,4.8125,4.7773,4.8631,4.9291,4.8476,4.8906,4.9766,5.0664,5.1133,5.207,5.4297,0.0,5.6562,6.0078,0.0,0.0,0.0,0.0,0.0,0.0,0.0,0.0,0.0,0.0,0.0,0.0,0.0,0.0,0.0,0.0,0.0,0.0,6.9947,6.9271,6.7829,6.8689,6.8598,6.7587,6.7162,6.6967,6.6925,6.6453,6.6256,6.6252,0.0,6.6181,6.6181,6.6181,6.5909,6.5328,6.4084,6.3309,6.2766,6.1527,6.1062,6.1062,6.1062,6.1128,6.1169,6.1169,6.1224,6.1286,6.1286,6.1286,6.1286,6.1286,6.1172,6.1062,6.1062,6.1007,6.0905,6.0905,6.0867,6.0787,6.0787,6.0787,6.0787,6.0787,6.0787,6.0787,6.0787,6.0787,6.0787,6.0787,6.0787,6.0787,6.0787,6.0787,6.0787,6.0787,6.0012,5.9358,5.8973,5.7747,5.6632,5.5747,5.5285,5.5088,5.517,5.3428,5.2544,5.2582,5.1361,5.0707,5.0707,5.0707,5.0707,5.0707,5.0707,5.0707,4.6562,4.7109,4.7773,4.8437,4.9414,5.0234,5.0351,5.0391,5.0937,5.2851,5.3047,5.3594,5.582,5.7265,0.0,0.0,0.0,0.0,0.0,0.0,0.0,0.0,0.0,0.0,0.0,0.0,0.0,0.0,0.0,0.0,0.0,0.0,0.0,0.0,6.918,6.8476,6.6914,6.7578,6.7755,6.7421,6.6802,6.6532,6.6491,6.6262,6.6129,6.6129,6.5893,6.58,6.58,6.58,6.5414,6.4714,6.3854,6.3001,6.2226,6.1562,6.1442,6.1562,6.1364,6.1468,6.1611,6.1417,6.1359,6.1385,6.1385,6.1385,6.1385,6.1385,6.1385,6.1371,6.1304,6.119,6.1077,6.1077,6.0982,6.0913,6.0913,6.0913,6.0913,6.0913,6.0913,6.0913,6.0913,6.0913,6.0887,6.0861,6.085,6.0828,6.0793,6.0787,6.0787,6.0787,6.0204,5.9704,5.9511,5.7978,5.6709,5.6055,5.5247,5.4972,5.5401,5.3549,5.262,5.289,5.1625,5.0899,5.0707,5.0707,5.0707,5.0707,5.0707,5.0707,4.7305,4.7539,4.7617,4.7695,4.8945,5.1016,5.4141,5.4844,5.5547,5.8125,5.8008,5.7734,5.875,6.0898,0.0,0.0,0.0,0.0,0.0,0.0,0.0,0.0,0.0,0.0,0.0,0.0,0.0,0.0,0.0,0.0,0.0,0.0,0.0,0.0,0.0,6.7851,6.6914,6.6953,6.6992,6.6952,6.6873,6.6874,6.6834,6.5819,6.5395,6.5312,6.4374,6.3994,6.3994,6.3994,6.3956,6.3803,6.2911,6.21,6.1403,6.1325,6.1795,6.2385,6.1562,6.1921,6.255,6.1768,6.1577,6.1678,6.1678,6.1678,6.1678,6.1678,6.1678,6.159,6.1357,6.1277,6.1268,6.1268,6.1259,6.125,6.125,6.125,6.125,6.125,6.125,6.125,6.125,6.125,6.1197,6.1006,6.0975,6.093,6.0821,6.0787,6.0787,6.0787,6.0748,6.0396,5.9588,5.7978,5.6983,5.6907,5.6093,5.5285,5.4626,5.4395,5.3587,5.2,5.189,5.1467,5.0707,5.0707,5.0707,5.0707,5.0707,5.0707,4.6719,4.7578,4.8672,4.9687,5.1289,5.2773,5.3516,5.5781,5.8164,5.9648,6.0976,6.1992,6.2305,0.0,0.0,0.0,0.0,0.0,0.0,0.0,0.0,0.0,0.0,0.0,0.0,0.0,0.0,0.0,0.0,0.0,0.0,0.0,0.0,0.0,0.0,6.7226,6.6914,6.6914,6.6914,6.6875,6.6367,6.6094,6.6055,6.5113,6.4678,6.4677,6.427,6.4103,6.4103,6.4103,6.4103,6.4025,6.3167,6.2309,6.1567,6.1567,6.1763,6.1998,6.1645,6.2167,6.2765,6.1906,6.2029,6.2422,6.1875,6.1719,6.1719,6.1719,6.1719,6.1679,6.1579,6.1495,6.1411,6.1411,6.1352,6.1286,6.1286,6.1286,6.1286,6.1286,6.1286,6.1286,6.1286,6.1286,6.1265,6.12,6.119,6.1165,6.1128,6.1116,6.1116,6.1116,6.0991,6.0522,5.9567,5.8473,5.7594,5.7016,5.617,5.5555,5.5247,5.478,5.4203,5.3549,5.2967,5.2544,5.2241,5.2241,5.2241,5.2241,5.2241,5.2241,4.6289,4.7578,4.918,5.0312,5.2539,5.4531,5.5039,5.7851,6.0859,6.2539,6.4062,6.5039,6.4765,0.0,0.0,0.0,0.0,0.0,0.0,0.0,0.0,0.0,0.0,0.0,0.0,0.0,0.0,0.0,0.0,0.0,0.0,0.0,0.0,0.0,0.0,0.0,6.6914,6.664,6.6484,6.6484,6.5312,6.5078,6.5586,6.4687,6.414,6.3867,6.3594,6.3476,6.3476,6.3476,6.3476,6.3437,6.2812,6.2226,6.1719,6.1719,6.1875,6.207,6.1797,6.2265,6.289,6.2305,6.25,6.289,6.2305,6.2109,6.2031,6.1797,6.1719,6.1719,6.1719,6.1634,6.1574,6.1574,6.1499,6.1413,6.1413,6.1413,6.1413,6.1413,6.1413,6.1413,6.1413,6.1413,6.14,6.1361,6.1354,6.1339,6.1292,6.1286,6.1286,6.1286,6.1183,6.0811,6.0143,5.9041,5.8163,5.751,5.6415,5.5758,5.5708,5.517,5.4741,5.4511,5.3895,5.3472,5.3197,5.3197,5.3197,5.3197,5.3197,5.3197,4.6328,4.7617,4.8945,4.8945,5.2187,5.6211,5.9648,6.1758,6.3984,6.75,6.7539,6.664,6.5781,6.5625,0.0,0.0,0.0,0.0,0.0,0.0,0.0,0.0,0.0,0.0,0.0,0.0,0.0,0.0,0.0,0.0,0.0,0.0,0.0,0.0,0.0,0.0,6.6875,6.6015,6.5586,6.5586,6.3828,6.3906,6.5547,6.4687,6.3789,6.293,6.207,6.1719,6.1719,6.1719,6.1719,6.1719,6.1719,6.1719,6.1719,6.1719,6.2265,6.2851,6.1992,6.2265,6.3008,6.3008,6.3008,6.3008,6.3008,6.3008,6.2812,6.1953,6.1719,6.1719,6.1719,6.1719,6.1719,6.1719,6.1719,6.1719,6.1719,6.1719,6.1719,6.1719,6.1719,6.1719,6.1719,6.1719,6.1638,6.1515,6.1504,6.1434,6.1309,6.1289,6.1289,6.1289,6.1289,6.1286,6.1286,5.9694,5.8658,5.8509,5.6857,5.5822,5.5719,5.5708,5.5324,5.4511,5.4511,5.4087,5.3236,5.3236,5.3236,5.3236,5.3236,5.3236,4.7383,4.9336,5.1719,5.2344,5.5273,5.8789,6.1601,6.3086,6.5078,6.9101,6.9297,6.8633,6.832,0.0,0.0,0.0,0.0,0.0,0.0,0.0,0.0,0.0,0.0,0.0,0.0,0.0,0.0,0.0,0.0,0.0,0.0,0.0,0.0,0.0,0.0,0.0,6.5078,6.4805,6.4687,6.4687,6.414,6.3867,6.375,6.2851,6.2344,6.207,6.1797,6.1719,6.1719,6.1719,6.1719,6.1719,6.1719,6.1719,6.1719,6.1719,6.1875,6.2031,6.1797,6.2265,6.289,6.2265,6.25,6.289,6.2265,6.2109,6.2031,6.1758,6.2148,6.2617,6.2617,6.2617,6.2461,6.1836,6.1719,6.1719,6.1719,6.1719,6.1719,6.1719,6.1719,6.1719,6.1719,6.1719,6.1679,6.1636,6.1635,6.1632,6.1582,6.158,6.1566,6.1432,6.1424,6.1392,6.1295,5.9694,5.8665,5.8658,5.7058,5.5982,5.5724,5.5708,5.5593,5.5362,5.5324,5.5208,5.4972,5.4972,5.4972,5.4972,5.4972,5.4972,4.8242,5.0859,5.3945,5.4805,5.789,6.1367,6.3945,6.6015,6.8398,7.2031,7.1562,7.0586,7.0898,0.0,0.0,0.0,0.0,0.0,0.0,0.0,0.0,0.0,0.0,0.0,0.0,0.0,0.0,0.0,0.0,0.0,0.0,0.0,0.0,0.0,0.0,0.0,6.4297,6.3945,6.3789,6.3789,6.3437,6.3008,6.2461,6.2305,6.2031,6.1719,6.1719,6.1719,6.1719,6.1719,6.1719,6.1719,6.1719,6.1719,6.1719,6.1719,6.1719,6.1719,6.1719,6.2031,6.2461,6.2265,6.2578,6.289,6.2383,6.2226,6.2148,6.1797,6.207,6.2578,6.289,6.3008,6.2851,6.2344,6.1953,6.1719,6.1719,6.1719,6.1719,6.1719,6.1719,6.1719,6.1719,6.1719,6.1719,6.1719,6.1719,6.1719,6.1719,6.1719,6.1678,6.1583,6.158,6.1566,6.1481,6.0191,5.9357,5.9317,5.7713,5.6684,5.6386,5.6055,5.5852,5.5789,5.5789,5.5735,5.5708,5.5708,5.5708,5.5708,5.5708,5.5708,4.9023,5.2109,5.5547,5.6562,6.0195,6.414,6.6758,6.9844,7.2734,7.4883,0.0,7.2422,7.3047,0.0,0.0,0.0,0.0,0.0,0.0,0.0,0.0,0.0,0.0,0.0,0.0,0.0,0.0,0.0,0.0,0.0,0.0,0.0,0.0,0.0,0.0,0.0,6.4062,6.3281,6.289,0.0,6.207,6.1719,6.1719,6.2539,6.2461,6.1719,6.1719,6.1719,6.1719,6.1719,6.1719,6.1719,6.1719,6.1719,6.1719,6.1719,6.1719,6.1719,6.1719,6.1719,6.1836,6.2617,6.289,6.289,6.289,6.289,6.2734,6.2031,6.1836,6.2031,6.3008,6.3125,6.3008,6.3086,6.2461,6.1797,6.1719,6.1719,6.1719,6.1719,6.1719,6.1719,6.1719,6.1719,6.1719,6.1719,6.1719,6.1719,6.1719,6.1719,6.1719,6.1719,6.1719,6.1719,6.1719,6.0898,6.0348,6.0234,5.8706,5.7738,5.7449,5.6638,5.6125,5.5913,5.5947,5.5853,5.5743,5.5743,5.5743,5.5743,5.5717,5.5707,5.0078,5.2539,5.5859,5.8086,6.289,6.7734,7.0312,7.1992,7.2617,7.1094,7.2539,7.3672,0.0,0.0,0.0,0.0,0.0,0.0,0.0,0.0,0.0,0.0,0.0,0.0,0.0,0.0,0.0,0.0,0.0,0.0,0.0,0.0,0.0,0.0,0.0,6.2969,6.2265,6.207,6.1992,0.0,6.1797,6.1719,6.1719,6.1875,6.1875,6.1719,6.1719,6.1719,6.1719,6.1719,6.1719,6.1719,6.1719,6.1719,6.1719,6.1719,6.1719,6.1719,6.1719,6.1719,6.1719,6.1914,6.1992,6.1992,6.1992,6.1992,6.207,6.2578,6.2734,6.3086,6.4648,6.4023,6.3164,6.3867,6.3359,6.2539,6.1836,6.1719,6.1719,6.1719,6.1719,6.1719,6.1719,6.1719,6.1719,6.1719,6.1719,6.1719,6.1719,6.1719,6.1719,6.1719,6.1719,6.1719,6.1719,6.0898,6.039,6.0349,5.9411,5.855,5.7803,5.6765,5.6178,5.6143,5.6143,5.6125,5.6091,5.6091,5.6091,5.6087,5.5932,5.5849,5.1406,5.3906,5.7461,6.1328,6.5273,6.875,7.0898,7.2031,7.2305,7.0937,7.2422,0.0,0.0,0.0,0.0,0.0,0.0,0.0,0.0,0.0,0.0,0.0,0.0,0.0,0.0,0.0,0.0,0.0,0.0,0.0,0.0,0.0,0.0,0.0,6.2383,6.2148,6.1719,6.1719,6.1719,6.1719,6.1719,6.1719,6.1719,6.1719,6.1719,6.1719,6.1719,6.1719,6.1719,6.1719,6.1719,6.1719,6.1719,6.1719,6.1719,6.1719,6.1719,6.1719,6.1719,6.1719,6.1719,6.1719,6.1719,6.1719,6.1719,6.1719,6.1875,6.2734,6.3008,6.3398,6.5156,6.4609,6.375,6.418,6.332,6.2265,6.1797,6.1719,6.1719,6.1719,6.1719,6.1719,6.1719,6.1719,6.1719,6.1719,6.1719,6.1719,6.1719,6.1719,6.1719,6.1719,6.1719,6.1719,6.1719,6.1289,6.1015,6.1015,6.0234,5.957,5.9101,5.8141,5.719,5.6322,5.6712,5.6686,5.6194,5.6194,5.6194,5.6191,5.6107,5.6025,5.2266,5.5234,5.9297,6.414,6.668,6.8437,7.0117,7.1172,7.1719,7.1562,0.0,0.0,0.0,0.0,0.0,0.0,0.0,0.0,0.0,0.0,0.0,0.0,0.0,0.0,0.0,0.0,0.0,0.0,0.0,0.0,0.0,0.0,6.2461,6.1719,6.1719,6.1719,6.1719,6.1719,6.1719,6.1719,6.1719,6.1719,6.1719,6.1719,6.1719,6.1719,6.1719,6.1719,6.1719,6.1719,6.1719,6.1719,6.1719,6.1719,6.1719,6.1719,6.1719,6.1719,6.1719,6.1719,6.1719,6.1719,6.1719,6.1719,6.1719,6.1719,6.1914,6.293,6.3125,6.3437,6.5312,6.5078,6.4336,6.4492,6.3203,6.1875,6.1719,6.1719,6.1719,6.1719,6.1719,6.1719,6.1719,6.1719,6.1719,6.1719,6.1719,6.1719,6.1719,6.1719,6.1719,6.1719,6.1719,6.1719,6.1719,6.1719,6.1719,6.1719,6.1015,6.0547,6.039,5.9922,5.8707,5.6682,5.7385,5.724,5.626,5.626,5.626,5.626,5.6237,5.6227,5.1523,5.5234,5.9883,6.3555,6.5781,6.7539,6.9258,0.0,7.0664,0.0,0.0,0.0,0.0,0.0,0.0,0.0,0.0,0.0,0.0,0.0,0.0,0.0,0.0,0.0,0.0,0.0,0.0,0.0,0.0,0.0,0.0,6.2265,6.1836,6.1719,6.1719,6.1719,6.1719,6.1719,6.1719,6.1719,6.1719,6.1719,6.1719,6.1719,6.1719,6.1719,6.1719,6.1719,6.1719,6.1719,6.1719,6.1719,6.1719,6.1719,6.1719,6.1719,6.1719,6.1719,6.1719,6.1719,6.1719,6.1719,6.1719,6.1719,6.1719,6.1719,6.2031,6.3672,6.3594,6.3594,6.6094,6.5508,6.4492,6.5234,6.4101,6.2617,6.1875,6.1719,6.1719,6.1719,6.1719,6.1719,6.1719,6.1719,6.1719,6.1719,6.1719,6.1719,6.1719,6.1719,6.1719,6.1719,6.1719,6.1719,6.1719,6.1719,6.1719,6.1719,6.1601,6.1172,6.043,6.1015,6.0195,5.7733,5.7811,5.7459,5.6559,5.6559,5.6559,5.6558,5.6443,5.6374,5.2578,5.5586,5.9062,6.1484,6.3789,6.5898,6.7656,6.8672,6.9336,0.0,0.0,0.0,0.0,0.0,0.0,0.0,0.0,0.0,0.0,0.0,0.0,0.0,0.0,0.0,0.0,0.0,0.0,0.0,0.0,0.0,6.2305,6.1914,6.1719,6.1719,6.1719,6.1719,6.1719,6.1719,6.1719,6.1719,6.1719,6.1719,6.1719,6.1719,6.1719,6.1719,6.1719,6.1719,6.1719,6.1719,6.1719,6.1719,6.1719,6.1719,6.1719,6.1719,6.1719,6.1719,6.1719,6.1719,6.1719,6.1719,6.1719,6.1719,6.1719,6.2031,6.2578,6.3359,6.3984,6.4726,6.5859,6.5586,6.5117,6.5508,6.4648,6.3476,6.2617,6.2031,6.1719,6.1719,6.1719,6.1719,6.1719,6.1719,6.1719,6.1719,6.1719,6.1719,6.1719,6.1719,6.1719,6.1719,6.1719,6.1719,6.1719,6.1719,6.1719,6.1719,6.1719,6.1523,6.1133,6.1484,6.0937,5.9336,5.9297,5.8398,5.6601,5.7109,5.707,5.6601,5.6557,5.6512,5.3242,5.543,5.7656,5.9336,6.1719,6.4101,0.0,0.0,0.0,0.0,0.0,0.0,0.0,0.0,0.0,0.0,0.0,0.0,0.0,0.0,0.0,0.0,0.0,0.0,0.0,0.0,0.0,0.0,0.0,0.0,6.1719,6.1719,6.1719,6.1719,6.1719,6.1719,6.1719,6.1719,6.1719,6.1719,6.1719,6.1719,6.1719,6.1719,6.1719,6.1719,6.1719,6.1719,6.1719,6.1719,6.1719,6.1719,6.1719,6.1719,6.1719,6.1719,6.1719,6.1719,6.1719,6.1719,6.1719,6.1719,6.1719,6.1719,6.1719,6.2305,6.3047,6.3281,6.4414,6.5664,6.5859,6.5937,6.5937,6.5937,6.5117,6.4062,6.3203,6.2305,6.1719,6.1719,6.1719,6.1719,6.1719,6.1719,6.1719,6.1719,6.1719,6.1719,6.1719,6.1719,6.1719,6.1719,6.1719,6.1719,6.1719,6.1719,6.1719,6.1719,6.1719,6.1719,6.1719,6.1719,6.1289,6.043,6.0625,5.9609,5.7265,5.789,5.789,5.7265,5.7265,5.7265,5.2539,5.4062,5.5859,5.7617,5.9961,6.2305,0.0,0.0,0.0,0.0,0.0,0.0,0.0,0.0,0.0,0.0,0.0,0.0,0.0,0.0,0.0,0.0,0.0,0.0,0.0,0.0,0.0,0.0,0.0,0.0,6.1719,6.1719,6.1719,6.1719,6.1719,6.1719,6.1719,6.1719,6.1719,6.1719,6.1719,6.1719,6.1719,6.1719,6.1719,6.1719,6.1719,6.1719,6.1719,6.1719,6.1719,6.1719,6.1719,6.1719,6.1719,6.1719,6.1719,6.1719,6.1719,6.1719,6.1719,6.1719,6.1719,6.1719,6.1719,6.2305,6.3164,6.3984,6.4883,6.5781,6.6601,6.6836,6.6836,6.6836,6.5547,6.4062,6.3203,6.2305,6.1719,6.1719,6.1719,6.1719,6.1719,6.1719,6.1719,6.1719,6.1719,6.1719,6.1719,6.1719,6.1719,6.1719,6.1719,6.1719,6.1719,6.1719,6.1719,6.1719,6.1719,6.1719,6.1719,6.1719,6.1289,6.043,6.1211,6.0781,5.9062,5.9101,5.9101,5.9062,5.9062,5.9062,5.1797,5.2734,5.4062,5.5781,5.7344,5.9023,6.1289,6.2695,0.0,0.0,0.0,0.0,0.0,0.0,0.0,0.0,0.0,0.0,0.0,0.0,0.0,0.0,0.0,0.0,0.0,0.0,0.0,0.0,0.0,0.0,6.1719,6.1719,6.1719,6.1719,6.1719,6.1719,6.1719,6.1719,6.1719,6.1719,6.1719,6.1719,6.1719,6.1719,6.1719,6.1719,6.1719,6.1719,6.1719,6.1719,6.1719,6.1719,6.1719,6.1719,6.1719,6.1719,6.1719,6.1719,6.1719,6.1719,6.1719,6.1719,6.1719,6.1719,6.1719,6.2695,6.3789,6.3555,6.4883,6.6367,6.6133,6.6484,6.6758,6.6211,6.5586,6.4726,6.332,6.2305,6.1719,6.1719,6.1719,6.1719,6.1719,6.1719,6.1719,6.1719,6.1719,6.1719,6.1719,6.1719,6.1719,6.1719,6.1719,6.1719,6.1719,6.1719,6.1719,6.1719,6.1719,6.1719,6.1719,6.1719,6.1562,6.125,6.1523,6.0898,5.9219,5.9726,5.9687,5.9219,5.9219,5.9219,5.1406,5.2031,5.3047,5.4492,5.5508,5.6758,5.9023,0.0,0.0,0.0,0.0,0.0,0.0,0.0,0.0,0.0,0.0,0.0,0.0,0.0,0.0,0.0,0.0,0.0,0.0,0.0,0.0,0.0,0.0,0.0,6.1719,6.1719,6.1719,6.1719,6.1719,6.1719,6.1719,6.1719,6.1719,6.1719,6.1719,6.1719,6.1719,6.1719,6.1719,6.1719,6.1719,6.1719,6.1719,6.1719,6.1719,6.1719,6.1719,6.1719,6.1719,6.1719,6.1719,6.1719,6.1719,6.1719,6.1719,6.1719,6.1914,6.207,6.1797,6.3125,6.4531,6.3672,6.5117,6.6758,6.6172,6.6484,6.668,6.582,6.5586,6.5195,6.375,6.2734,6.2031,6.1758,6.1719,6.1719,6.1719,6.1719,6.1719,6.1719,6.1719,6.1719,6.1719,6.1719,6.1719,6.1719,6.1719,6.1719,6.1719,6.1719,6.1719,6.1719,6.1719,6.1719,6.1719,6.1719,6.1719,6.1719,6.1719,6.1133,6.0039,6.0586,6.0547,6.0039,6.0039,6.0039,0.0,0.0,0.0,0.0,0.0,0.0,5.7422,0.0,0.0,0.0,0.0,0.0,0.0,0.0,0.0,0.0,0.0,0.0,0.0,0.0,0.0,0.0,0.0,0.0,0.0,0.0,0.0,0.0,0.0,6.1719,6.1719,6.1719,6.1719,6.1719,6.1719,6.1719,6.1719,6.1719,6.1719,6.1719,6.1719,6.1719,6.1719,6.1719,6.1719,6.1719,6.1719,6.1719,6.1719,6.1719,6.1719,6.1719,6.1719,6.1719,6.1719,6.1719,6.1719,6.1719,6.1719,6.1719,6.1719,6.1719,6.2265,6.2812,6.1992,6.3515,6.539,6.457,6.5586,6.6914,6.6914,6.6914,6.668,6.582,6.5625,6.539,6.4453,6.3633,6.2773,6.1914,6.1719,6.1719,6.1719,6.1758,6.1758,6.1758,6.1758,6.1719,6.1719,6.1719,6.1719,6.1719,6.1719,6.1719,6.1719,6.1719,6.1719,6.1719,6.1719,6.1719,6.1719,6.1719,6.1719,6.1719,6.1719,6.1719,6.1719,6.1719,6.1719,6.1719,6.1719,6.1719,5.1406,0.0,0.0,0.0,0.0,0.0,0.0,0.0,0.0,0.0,0.0,0.0,0.0,0.0,0.0,0.0,0.0,0.0,0.0,0.0,0.0,0.0,0.0,0.0,0.0,0.0,0.0,0.0,6.1719,6.1719,6.1719,6.1719,6.1719,6.1719,6.1719,6.1719,6.1719,6.1719,6.1719,6.1719,6.1719,6.1719,6.1719,6.1719,6.1719,6.1719,6.1719,6.1719,6.1719,6.1719,6.1719,6.1719,6.1719,6.1719,6.1719,6.1719,6.1719,6.1719,6.1719,6.1719,6.1719,6.1719,6.1875,6.2148,6.2539,6.3594,6.4726,6.5117,6.6055,6.6914,6.6914,6.6914,6.668,6.582,6.6094,6.5976,6.3828,6.3672,6.3672,6.2812,6.2148,6.1914,6.2539,6.2656,6.2656,6.2656,6.2656,6.2422,6.1797,6.1719,6.1719,6.1719,6.1719,6.1719,6.1719,6.1719,6.1719,6.1719,6.1719,6.1719,6.1719,6.1719,6.1719,6.1719,6.1719,6.1719,6.1719,6.1719,6.1719,6.1719,6.1719,6.1719,0.0,0.0,0.0,0.0,0.0,0.0,5.3789,5.3828,0.0,0.0,0.0,0.0,0.0,0.0,0.0,0.0,0.0,0.0,0.0,0.0,0.0,0.0,0.0,0.0,0.0,0.0,0.0,0.0,6.1172,6.1328,6.168,6.1719,6.1719,6.1719,6.1719,6.1719,6.1719,6.1719,6.1719,6.1719,6.1719,6.1719,6.1719,6.1719,6.1719,6.1719,6.1719,6.1719,6.1719,6.1719,6.1719,6.1719,6.1719,6.1719,6.1719,6.1719,6.1719,6.1719,6.1719,6.1719,6.1719,6.1719,6.1953,6.2344,6.2851,6.3867,6.4961,6.5469,6.6211,6.6914,6.6914,6.6914,6.6758,6.625,6.6523,6.6484,6.4961,6.4453,6.3945,6.2695,6.2031,6.1992,6.2851,6.3008,6.3125,6.3476,6.3242,6.2812,6.2305,6.1914,6.1719,6.1719,6.1719,6.1719,6.1719,6.1719,6.1719,6.1719,6.1719,6.1719,6.1719,6.1719,6.1719,6.1719,6.1719,6.1719,6.1719,6.1719,6.1719,6.1719,6.1719,6.1719,0.0,0.0,0.0,0.0,0.0,0.0,5.2656,5.2773,5.3164,0.0,0.0,0.0,0.0,0.0,0.0,0.0,0.0,0.0,0.0,0.0,0.0,0.0,0.0,0.0,0.0,0.0,6.0273,6.0273,6.0351,6.0703,6.1406,6.1601,6.164,6.1562,6.164,6.1719,6.1719,6.1719,6.1719,6.1719,6.1719,6.1719,6.1719,6.1719,6.1719,6.1719,6.1719,6.1719,6.1719,6.1719,6.1719,6.1719,6.1719,6.1719,6.1719,6.1719,6.1719,6.1719,6.1719,6.1719,6.1719,6.1719,6.2226,6.2851,6.2969,6.4062,6.5351,6.5547,6.6211,6.6914,6.6914,6.6914,6.6914,6.6914,6.6914,6.6875,6.6797,6.5547,6.3945,6.2187,6.1758,6.1992,6.2969,6.3125,6.3437,6.4297,6.3789,6.3203,6.3008,6.2305,6.1797,6.1719,6.1719,6.1719,6.1719,6.1719,6.1719,6.1719,6.1719,6.1719,6.1719,6.1719,6.1719,6.1719,6.1719,6.1719,6.1719,6.1719,6.1719,6.1719,6.1719,6.1719,0.0,0.0,0.0,0.0,0.0,0.0,5.3711,5.3203,5.3008,0.0,0.0,0.0,0.0,0.0,0.0,0.0,0.0,0.0,0.0,0.0,0.0,0.0,0.0,0.0,0.0,0.0,5.9414,5.9414,6.0039,6.0195,5.9726,6.0976,6.1367,6.0664,6.1328,6.1719,6.1719,6.1719,6.1719,6.1719,6.1719,6.1719,6.1719,6.1719,6.1719,6.1719,6.1719,6.1719,6.1719,6.1719,6.1719,6.1719,6.1719,6.1719,6.1719,6.1719,6.1719,6.1719,6.1719,6.1719,6.1719,6.1719,6.1836,6.207,6.2773,6.3242,6.3789,6.5195,6.6211,6.6914,6.6914,6.6914,6.6914,6.6914,6.6914,6.6719,6.6015,6.5586,6.4844,6.3086,6.2187,6.2187,6.3789,6.4062,6.4336,6.5234,6.5195,6.4609,6.3164,6.2851,6.2461,6.1758,6.1719,6.1719,6.1719,6.1719,6.1719,6.1719,6.1719,6.1719,6.1719,6.1719,6.1719,6.1719,6.1719,6.1719,6.1719,6.1719,6.1719,6.1719,6.1719,6.1719,0.0,0.0,0.0,5.4101,0.0,0.0,0.0,5.3008,5.2812,0.0,0.0,0.0,0.0,0.0,0.0,0.0,0.0,0.0,0.0,0.0,0.0,0.0,0.0,0.0,0.0,0.0,5.8555,5.8555,5.9687,6.0039,5.9258,6.039,6.0859,6.039,6.082,6.125,6.1719,6.1719,6.1719,6.1719,6.1719,6.1719,6.1719,6.1719,6.1719,6.1719,6.1719,6.1719,6.1719,6.1719,6.1719,6.1719,6.1719,6.1719,6.1719,6.1719,6.1719,6.1719,6.1719,6.1719,6.1719,6.1719,6.1719,6.1875,6.2734,6.3594,6.4492,6.5351,6.6211,6.6914,6.6914,6.6914,6.6914,6.6914,6.6914,6.6797,6.6328,6.5898,6.5351,6.4453,6.3594,6.3281,6.414,6.4297,6.4726,6.6055,6.5508,6.4648,6.375,6.3281,6.2656,6.1797,6.2109,6.2187,6.1758,6.1719,6.1719,6.1719,6.1719,6.1719,6.1719,6.1719,6.1719,6.1719,6.1719,6.1719,6.1719,6.1719,6.1719,6.1719,6.1719,6.1719,0.0,0.0,0.0,0.0,0.0,5.4258,0.0,0.0,0.0,5.2734,0.0,0.0,0.0,0.0,0.0,0.0,0.0,0.0,0.0,0.0,0.0,0.0,0.0,0.0,0.0,0.0,5.7812,5.7656,5.9219,5.9805,5.8984,5.9726,6.0234,6.039,6.039,6.082,6.168,6.1719,6.1719,6.1719,6.1719,6.1719,6.1719,6.1719,6.1719,6.1719,6.1719,6.1719,6.1719,6.1719,6.1719,6.1719,6.1719,6.1719,6.1719,6.1719,6.1719,6.1719,6.1719,6.1719,6.1719,6.1719,6.1719,6.1875,6.2734,6.4101,6.539,6.5547,6.6211,6.6914,6.6914,6.6914,6.6914,6.6914,6.6914,6.6914,6.6914,6.6367,6.5781,6.5625,6.5039,6.4531,6.4531,6.4531,6.5078,6.664,6.5703,6.4687,6.4336,6.3672,6.2851,6.1797,6.2344,6.2461,6.1758,6.1719,6.1719,6.1719,6.1719,6.1719,6.1719,6.1719,6.1719,6.1719,6.1719,6.1719,6.1719,6.1719,6.1719,6.1719,6.1719,6.1719,0.0,0.0,0.0,0.0,5.6289,0.0,0.0,0.0,5.3633,5.2851,0.0,0.0,0.0,0.0,0.0,0.0,0.0,0.0,0.0,0.0,0.0,0.0,0.0,0.0,0.0,0.0,0.0,5.6797,5.8359,5.8945,5.8086,5.8867,5.9648,6.039,6.039,6.082,6.168,6.1719,6.1719,6.1719,6.1719,6.1719,6.1719,6.1719,6.1719,6.1719,6.1719,6.1719,6.1719,6.1719,6.1719,6.1719,6.1719,6.1719,6.1719,6.1719,6.1719,6.1719,6.1719,6.1719,6.1719,6.1719,6.1719,6.1875,6.2734,6.3672,6.4609,6.539,6.6211,6.6914,6.6914,6.6914,6.6914,6.6914,6.6914,6.6914,6.6914,6.6836,6.6523,6.5742,6.5508,6.5469,6.5469,6.5469,6.5781,6.6758,6.6719,6.6055,6.4492,6.4219,6.3515,6.1875,6.1797,6.1797,6.1719,6.1719,6.1719,6.1719,6.1719,6.1719,6.1719,6.1719,6.1719,6.1719,6.1719,6.1719,6.1719,6.1719,6.1719,6.1719,6.1719,6.1719,0.0,0.0,0.0,0.0,0.0,0.0,0.0,0.0,5.4375,0.0,0.0,0.0,0.0,0.0,0.0,0.0,0.0,0.0,0.0,0.0,0.0,0.0,0.0,0.0,0.0,0.0,0.0,0.0,0.0,5.8086,5.7187,5.7969,5.9062,6.0351,5.9961,6.0351,6.168,6.1719,6.1719,6.1719,6.1719,6.1719,6.1719,6.1719,6.1719,6.1719,6.1719,6.1719,6.1719,6.1719,6.1719,6.1719,6.1719,6.1719,6.1719,6.1719,6.1719,6.1719,6.1719,6.1719,6.1719,6.1719,6.2031,6.2539,6.289,6.3945,6.5117,6.5508,6.6211,6.6914,6.6914,6.6914,6.6914,6.6914,6.6914,6.6914,6.6914,6.6914,6.6797,6.6445,6.6367,6.6367,6.6367,6.5937,6.5898,6.6758,6.6484,6.5703,6.4453,6.4297,6.3633,6.1875,6.2148,6.2265,6.1758,6.1719,6.1719,6.1719,6.1719,6.1719,6.1719,6.1719,6.1719,6.1719,6.1719,6.1719,6.1719,6.1719,6.1719,6.1719,6.1719,6.1719,5.8086,0.0,0.0,0.0,0.0,0.0,0.0,0.0,0.0,0.0,0.0,0.0,0.0,0.0,0.0,0.0,0.0,0.0,0.0,0.0,0.0,0.0,0.0,0.0,0.0,0.0,0.0,0.0,0.0,0.0,5.664,5.6953,5.8164,6.0312,5.9609,6.0,6.168,6.1719,6.1719,6.1719,6.1719,6.1719,6.1719,6.1719,6.1719,6.1719,6.1719,6.1719,6.1719,6.1719,6.1719,6.1719,6.1719,6.1719,6.1719,6.1719,6.1719,6.1719,6.1719,6.1719,6.1719,6.1719,6.2305,6.3047,6.3281,6.4414,6.5664,6.5898,6.6406,6.6914,6.6914,6.6914,6.6914,6.6914,6.6914,6.6914,6.6914,6.6914,6.6914,6.6914,6.6914,6.6914,6.6914,6.6367,6.6172,6.6797,6.6367,6.5625,6.4765,6.4648,6.3984,6.2226,6.2617,6.2656,6.1758,6.1719,6.1797,6.2031,6.2265,6.2305,6.207,6.2305,6.2305,6.207,6.207,6.207,6.207,6.1836,6.1719,6.1719,6.1719,6.1719,0.0,0.0,0.0,5.8945,0.0,0.0,0.0,0.0,5.5273,0.0,0.0,0.0,0.0,0.0,0.0,0.0,0.0,0.0,0.0,0.0,0.0,0.0,0.0,0.0,0.0,0.0,0.0,0.0,0.0,0.0,5.6601,5.582,5.6914,6.0273,5.9609,6.0,6.168,6.1719,6.1719,6.1719,6.1719,6.1719,6.1719,6.1719,6.1719,6.1719,6.1719,6.1719,6.1719,6.1719,6.1719,6.1719,6.1719,6.1719,6.1719,6.1719,6.1719,6.1719,6.1719,6.1719,6.1719,6.1719,6.2305,6.3164,6.3984,6.4883,6.5781,6.6601,6.6875,6.6914,6.6914,6.6914,6.6914,6.6914,6.6914,6.6914,6.6914,6.6914,6.6914,6.6914,6.6914,6.6914,6.6914,6.6875,6.6875,6.6914,6.6875,6.6523,6.5664,6.5547,6.4883,6.3125,6.2969,6.2656,6.1758,6.1719,6.207,6.289,6.375,6.3828,6.3008,6.3789,6.3828,6.2969,6.2969,6.2969,6.2969,6.2109,6.1719,6.1719,6.1719,6.1719,0.0,0.0,5.9648,5.9922,0.0,0.0,0.0,0.0,0.0,0.0,0.0,0.0,0.0,0.0,0.0,0.0,0.0,0.0,0.0,0.0,0.0,0.0,0.0,0.0,0.0,0.0,0.0,0.0,0.0,0.0,0.0,5.6015,5.7461,6.0312,6.0156,6.0547,6.168,6.1719,6.1719,6.1719,6.1719,6.1719,6.1719,6.1719,6.1719,6.1719,6.1719,6.1719,6.1719,6.1719,6.1719,6.1719,6.1719,6.1719,6.1719,6.1719,6.1719,6.1719,6.1719,6.1719,6.1719,6.1719,6.2305,6.3164,6.4023,6.4922,6.5781,6.664,6.6914,6.6914,6.6914,6.6914,6.6914,6.6914,6.6914,6.6914,6.6914,6.6914,6.6914,6.6914,6.6914,6.6914,6.6914,6.6914,6.6914,6.6914,6.6914,6.6601,6.5703,6.5586,6.5156,6.3984,6.3867,6.3515,6.2617,6.2578,6.293,6.3828,6.414,6.418,6.3867,6.414,6.414,6.3867,6.3867,6.3867,6.3867,6.3008,6.2578,6.2539,6.1953,6.1719,6.0703,6.0625,0.0,0.0,6.0039,0.0,5.8867,0.0,0.0,0.0,0.0,0.0,0.0,0.0,0.0,0.0,0.0,0.0,0.0,5.1406,0.0,0.0,0.0,0.0,0.0,0.0,0.0,0.0,0.0,0.0,0.0,0.0,5.7305,5.9883,6.0234,6.082,6.168,6.1719,6.1719,6.1719,6.1719,6.1719,6.1719,6.1719,6.1719,6.1719,6.1719,6.1719,6.1719,6.1719,6.1719,6.1719,6.1719,6.1719,6.1719,6.1719,6.1719,6.1719,6.1719,6.1719,6.1719,6.1719,6.25,6.3555,6.414,6.5117,6.6172,6.6758,6.6914,6.6914,6.6914,6.6914,6.6914,6.6914,6.6914,6.6914,6.6914,6.6914,6.6914,6.6914,6.6914,6.6914,6.6914,6.6914,6.6914,6.6914,6.6914,6.6719,6.6133,6.6055,6.5742,6.4844,6.4765,6.4414,6.3555,6.375,6.414,6.4726,6.5039,6.5078,6.4765,6.5078,6.5351,6.5664,6.5078,6.5078,6.5664,6.418,6.3476,6.3437,6.2578,6.2148]}]]